GEFSGL_prec_meanprecacc_084.txt.gz
Total_Precipitation_Accumulation
0.78 0.77 0.78 0.75 0.74 0.73 0.73 0.70 0.70 0.74 0.73 0.76 0.90 0.94 0.99 1.05 1.21 1.46 1.61 1.61 1.54 1.52 1.51 1.55 1.67 1.76 1.98 1.95 1.85 1.72 1.57 1.39 1.21 1.05 0.84 0.63 0.65 0.66 0.63 0.50 0.41 0.38 0.31
0.88 0.86 0.78 0.69 0.66 0.66 0.64 0.57 0.56 0.53 0.51 0.61 0.72 0.76 0.79 0.81 0.96 1.22 1.41 1.44 1.39 1.32 1.29 1.35 1.53 1.70 1.91 2.02 1.99 1.86 1.74 1.60 1.43 1.31 1.12 0.88 0.77 0.74 0.76 0.75 0.64 0.56 0.49
0.92 0.82 0.74 0.68 0.59 0.54 0.49 0.45 0.50 0.50 0.55 0.63 0.71 0.76 0.78 0.79 0.79 0.86 0.98 1.10 1.13 1.10 1.09 1.10 1.14 1.29 1.54 1.74 1.82 1.85 1.88 1.82 1.72 1.55 1.33 1.15 0.98 0.84 0.81 0.79 0.73 0.73 0.66
1.06 0.96 0.85 0.73 0.62 0.56 0.49 0.45 0.43 0.44 0.50 0.55 0.58 0.66 0.75 0.77 0.74 0.73 0.75 0.81 0.80 0.84 0.89 0.94 0.97 1.00 1.15 1.30 1.43 1.63 1.83 1.83 1.82 1.73 1.51 1.25 1.08 0.95 0.92 0.91 0.89 0.86 0.81
1.08 1.07 0.93 0.74 0.61 0.54 0.50 0.43 0.40 0.41 0.42 0.47 0.51 0.54 0.61 0.67 0.71 0.72 0.62 0.58 0.61 0.66 0.71 0.72 0.73 0.81 0.89 0.96 1.04 1.32 1.62 1.75 1.72 1.69 1.58 1.38 1.13 1.00 0.90 0.85 0.90 1.01 1.00
0.99 0.97 0.75 0.58 0.46 0.41 0.41 0.39 0.35 0.34 0.39 0.44 0.44 0.45 0.55 0.57 0.67 0.64 0.50 0.48 0.50 0.58 0.67 0.64 0.58 0.58 0.61 0.65 0.73 0.86 1.08 1.29 1.51 1.64 1.61 1.42 1.22 1.07 1.00 0.97 0.96 0.98 1.04
0.64 0.60 0.51 0.40 0.38 0.41 0.43 0.37 0.34 0.34 0.35 0.38 0.39 0.40 0.45 0.57 0.58 0.42 0.39 0.42 0.48 0.54 0.60 0.66 0.60 0.51 0.55 0.56 0.63 0.67 0.66 0.73 0.98 1.25 1.39 1.39 1.42 1.23 1.13 1.05 0.98 1.01 1.01
0.40 0.40 0.34 0.30 0.31 0.34 0.35 0.34 0.40 0.44 0.42 0.42 0.44 0.44 0.44 0.49 0.46 0.33 0.33 0.38 0.45 0.50 0.58 0.67 0.72 0.64 0.63 0.70 0.67 0.69 0.64 0.59 0.74 0.75 0.89 1.17 1.30 1.31 1.22 1.24 1.34 1.25 1.09
0.12 0.13 0.12 0.12 0.13 0.14 0.16 0.22 0.33 0.40 0.42 0.44 0.48 0.48 0.43 0.40 0.39 0.30 0.29 0.37 0.45 0.52 0.54 0.59 0.66 0.63 0.74 0.80 0.77 0.86 0.83 0.73 0.83 0.86 0.88 0.89 0.94 1.02 1.10 1.12 1.18 1.21 1.19
0.01 0.01 0.01 0.02 0.02 0.04 0.06 0.09 0.15 0.19 0.24 0.32 0.34 0.38 0.41 0.38 0.46 0.33 0.32 0.38 0.48 0.59 0.63 0.61 0.73 0.70 0.73 0.72 0.69 0.88 0.91 0.80 0.70 0.74 0.71 0.65 0.60 0.66 0.80 0.91 1.05 1.08 1.03
0.00 0.00 0.00 0.00 0.00 0.01 0.02 0.03 0.06 0.08 0.12 0.17 0.21 0.27 0.34 0.39 0.46 0.43 0.46 0.48 0.54 0.68 0.70 0.63 0.57 0.65 0.52 0.54 0.56 0.61 0.81 0.80 0.69 0.71 0.67 0.60 0.55 0.54 0.59 0.67 0.82 0.94 0.93
0.00 0.00 0.00 0.00 0.00 0.01 0.01 0.02 0.02 0.03 0.06 0.09 0.11 0.15 0.22 0.27 0.33 0.38 0.38 0.41 0.47 0.60 0.68 0.57 0.54 0.61 0.46 0.43 0.45 0.53 0.63 0.68 0.65 0.68 0.64 0.61 0.55 0.48 0.48 0.53 0.59 0.61 0.60
0.00 0.00 0.00 0.00 0.01 0.01 0.01 0.01 0.02 0.03 0.05 0.06 0.09 0.15 0.21 0.28 0.29 0.25 0.22 0.24 0.29 0.43 0.49 0.50 0.50 0.47 0.43 0.39 0.40 0.46 0.52 0.58 0.67 0.65 0.56 0.54 0.49 0.45 0.43 0.42 0.47 0.50 0.50
0.00 0.00 0.00 0.01 0.01 0.01 0.02 0.03 0.03 0.04 0.05 0.09 0.13 0.18 0.23 0.26 0.28 0.25 0.26 0.28 0.27 0.32 0.34 0.34 0.37 0.39 0.43 0.42 0.38 0.41 0.48 0.57 0.59 0.53 0.46 0.43 0.44 0.43 0.47 0.47 0.48 0.50 0.53
0.00 0.00 0.00 0.00 0.01 0.01 0.01 0.01 0.02 0.03 0.04 0.10 0.17 0.21 0.21 0.21 0.15 0.14 0.24 0.34 0.40 0.46 0.53 0.48 0.49 0.50 0.46 0.41 0.39 0.39 0.42 0.46 0.44 0.40 0.37 0.34 0.32 0.34 0.37 0.41 0.43 0.43 0.44
0.00 0.00 0.00 0.00 0.01 0.01 0.01 0.01 0.01 0.02 0.05 0.07 0.07 0.09 0.10 0.09 0.09 0.10 0.16 0.26 0.34 0.44 0.60 0.65 0.69 0.69 0.63 0.53 0.43 0.36 0.32 0.33 0.34 0.36 0.36 0.34 0.31 0.30 0.32 0.33 0.34 0.32 0.32
0.00 0.00 0.00 0.00 0.01 0.01 0.02 0.04 0.05 0.04 0.02 0.01 0.01 0.02 0.08 0.15 0.19 0.23 0.24 0.27 0.30 0.42 0.61 0.68 0.69 0.66 0.58 0.51 0.46 0.37 0.31 0.28 0.28 0.29 0.28 0.28 0.28 0.27 0.27 0.25 0.23 0.22 0.22
0.00 0.00 0.00 0.03 0.05 0.05 0.05 0.09 0.13 0.17 0.14 0.07 0.01 0.01 0.04 0.11 0.15 0.18 0.24 0.36 0.39 0.45 0.53 0.54 0.53 0.41 0.32 0.28 0.25 0.20 0.17 0.17 0.19 0.18 0.16 0.16 0.17 0.18 0.19 0.20 0.21 0.20 0.19
0.00 0.01 0.03 0.07 0.09 0.07 0.08 0.13 0.14 0.10 0.08 0.07 0.04 0.02 0.01 0.04 0.06 0.08 0.16 0.34 0.35 0.29 0.24 0.20 0.18 0.15 0.11 0.10 0.10 0.09 0.08 0.07 0.07 0.07 0.06 0.06 0.08 0.09 0.11 0.13 0.16 0.18 0.21
0.00 0.00 0.02 0.07 0.09 0.07 0.07 0.07 0.07 0.05 0.03 0.04 0.04 0.04 0.04 0.05 0.07 0.07 0.09 0.13 0.12 0.08 0.07 0.07 0.06 0.05 0.04 0.05 0.04 0.04 0.04 0.04 0.04 0.04 0.04 0.04 0.05 0.06 0.08 0.11 0.14 0.16 0.17
0.00 0.00 0.00 0.03 0.05 0.04 0.03 0.03 0.03 0.02 0.02 0.03 0.02 0.01 0.03 0.07 0.08 0.07 0.07 0.05 0.04 0.04 0.04 0.05 0.04 0.02 0.02 0.03 0.03 0.03 0.04 0.04 0.04 0.03 0.03 0.04 0.05 0.06 0.08 0.12 0.15 0.18 0.19
0.00 0.01 0.02 0.04 0.04 0.02 0.02 0.03 0.05 0.04 0.02 0.03 0.03 0.02 0.03 0.06 0.07 0.06 0.05 0.05 0.04 0.04 0.05 0.07 0.06 0.05 0.03 0.03 0.03 0.03 0.03 0.04 0.04 0.03 0.03 0.03 0.03 0.04 0.06 0.09 0.12 0.16 0.20
0.00 0.00 0.01 0.03 0.03 0.01 0.01 0.03 0.04 0.04 0.02 0.02 0.03 0.04 0.04 0.06 0.06 0.07 0.07 0.07 0.07 0.08 0.07 0.07 0.09 0.08 0.05 0.04 0.04 0.04 0.04 0.04 0.04 0.04 0.05 0.04 0.04 0.05 0.06 0.07 0.07 0.10 0.14
0.00 0.00 0.01 0.02 0.02 0.01 0.02 0.03 0.04 0.03 0.03 0.04 0.05 0.05 0.05 0.06 0.04 0.04 0.05 0.06 0.08 0.09 0.07 0.06 0.06 0.05 0.04 0.04 0.05 0.05 0.06 0.06 0.04 0.04 0.05 0.06 0.07 0.08 0.10 0.13 0.16 0.17 0.18
0.00 0.00 0.01 0.02 0.02 0.01 0.01 0.02 0.03 0.03 0.03 0.04 0.04 0.03 0.03 0.04 0.03 0.03 0.04 0.05 0.06 0.08 0.07 0.07 0.07 0.05 0.04 0.03 0.04 0.05 0.08 0.09 0.07 0.06 0.05 0.05 0.07 0.10 0.14 0.22 0.27 0.29 0.30
0.00 0.00 0.00 0.01 0.01 0.01 0.01 0.02 0.03 0.02 0.02 0.02 0.02 0.02 0.03 0.03 0.02 0.02 0.03 0.03 0.04 0.05 0.04 0.05 0.07 0.05 0.04 0.05 0.05 0.08 0.10 0.09 0.08 0.06 0.03 0.02 0.04 0.07 0.09 0.11 0.15 0.20 0.23

GEFSGL_prec_meanprecacc_090.txt.gz
Total_Precipitation_Accumulation
0.78 0.78 0.78 0.76 0.74 0.74 0.74 0.71 0.72 0.76 0.74 0.77 0.92 0.96 1.01 1.07 1.23 1.48 1.64 1.66 1.58 1.56 1.54 1.59 1.71 1.81 2.03 2.01 1.90 1.78 1.63 1.44 1.24 1.07 0.86 0.66 0.71 0.75 0.78 0.70 0.63 0.58 0.46
0.88 0.86 0.78 0.70 0.67 0.67 0.64 0.57 0.56 0.53 0.52 0.62 0.74 0.78 0.82 0.84 0.98 1.25 1.44 1.48 1.43 1.36 1.34 1.40 1.58 1.74 1.95 2.05 2.02 1.90 1.78 1.64 1.47 1.34 1.15 0.92 0.81 0.80 0.87 0.91 0.84 0.76 0.67
0.92 0.82 0.74 0.68 0.59 0.55 0.49 0.45 0.50 0.51 0.55 0.64 0.72 0.77 0.80 0.83 0.82 0.90 1.02 1.15 1.17 1.13 1.13 1.13 1.17 1.32 1.58 1.77 1.85 1.88 1.91 1.86 1.76 1.58 1.35 1.18 1.03 0.90 0.90 0.92 0.89 0.91 0.84
1.06 0.96 0.85 0.73 0.62 0.56 0.49 0.45 0.43 0.45 0.51 0.56 0.60 0.68 0.77 0.80 0.77 0.76 0.78 0.83 0.84 0.89 0.94 0.96 0.99 1.03 1.18 1.34 1.47 1.67 1.89 1.88 1.86 1.77 1.54 1.28 1.12 1.00 1.01 1.03 1.03 1.00 0.96
1.08 1.07 0.93 0.74 0.61 0.54 0.50 0.43 0.40 0.41 0.42 0.47 0.52 0.55 0.61 0.68 0.72 0.73 0.63 0.59 0.64 0.70 0.74 0.75 0.76 0.84 0.93 1.00 1.07 1.36 1.67 1.80 1.77 1.73 1.62 1.42 1.17 1.06 0.96 0.92 1.02 1.17 1.16
0.99 0.97 0.75 0.58 0.46 0.41 0.41 0.39 0.35 0.34 0.39 0.44 0.44 0.46 0.56 0.57 0.67 0.65 0.50 0.48 0.51 0.61 0.69 0.67 0.60 0.59 0.63 0.69 0.77 0.91 1.13 1.34 1.56 1.68 1.64 1.45 1.25 1.10 1.04 1.02 1.04 1.10 1.17
0.64 0.60 0.51 0.40 0.38 0.41 0.43 0.37 0.34 0.34 0.35 0.38 0.39 0.40 0.45 0.57 0.58 0.42 0.39 0.42 0.50 0.56 0.63 0.68 0.61 0.52 0.56 0.57 0.66 0.73 0.72 0.80 1.04 1.30 1.43 1.42 1.45 1.26 1.17 1.10 1.03 1.08 1.09
0.40 0.40 0.34 0.30 0.31 0.34 0.35 0.34 0.40 0.44 0.42 0.42 0.44 0.44 0.44 0.49 0.46 0.33 0.34 0.38 0.45 0.51 0.60 0.68 0.73 0.65 0.64 0.72 0.70 0.72 0.67 0.64 0.79 0.79 0.93 1.22 1.35 1.38 1.30 1.31 1.42 1.34 1.18
0.12 0.13 0.12 0.12 0.13 0.14 0.16 0.22 0.33 0.40 0.42 0.44 0.48 0.48 0.43 0.40 0.39 0.30 0.29 0.38 0.46 0.52 0.55 0.61 0.67 0.64 0.75 0.82 0.80 0.89 0.86 0.76 0.88 0.91 0.92 0.94 1.00 1.09 1.18 1.21 1.27 1.30 1.27
0.01 0.01 0.01 0.02 0.02 0.04 0.06 0.09 0.15 0.19 0.24 0.32 0.34 0.38 0.41 0.38 0.46 0.33 0.32 0.38 0.49 0.60 0.63 0.62 0.75 0.73 0.76 0.74 0.71 0.91 0.93 0.82 0.73 0.76 0.75 0.69 0.64 0.71 0.86 0.97 1.11 1.15 1.09
0.00 0.00 0.00 0.00 0.00 0.01 0.02 0.03 0.06 0.08 0.12 0.17 0.21 0.27 0.34 0.39 0.46 0.43 0.46 0.48 0.54 0.68 0.70 0.63 0.57 0.66 0.54 0.57 0.59 0.64 0.85 0.85 0.73 0.74 0.72 0.65 0.59 0.59 0.64 0.72 0.88 1.00 0.98
0.00 0.00 0.00 0.00 0.00 0.01 0.01 0.02 0.02 0.03 0.06 0.09 0.11 0.15 0.22 0.27 0.33 0.38 0.38 0.41 0.47 0.60 0.68 0.57 0.54 0.61 0.46 0.44 0.46 0.54 0.65 0.73 0.70 0.71 0.68 0.66 0.60 0.52 0.52 0.58 0.63 0.66 0.65
0.00 0.00 0.00 0.00 0.01 0.01 0.01 0.01 0.02 0.03 0.05 0.06 0.09 0.15 0.21 0.28 0.29 0.25 0.22 0.24 0.29 0.43 0.49 0.50 0.50 0.47 0.43 0.39 0.41 0.47 0.53 0.61 0.71 0.68 0.59 0.58 0.54 0.51 0.48 0.48 0.51 0.54 0.54
0.00 0.00 0.00 0.01 0.01 0.01 0.02 0.03 0.03 0.04 0.05 0.09 0.13 0.18 0.23 0.26 0.28 0.25 0.26 0.28 0.27 0.32 0.34 0.34 0.37 0.39 0.43 0.42 0.39 0.42 0.48 0.58 0.61 0.56 0.48 0.46 0.48 0.49 0.52 0.52 0.52 0.55 0.59
0.00 0.00 0.00 0.00 0.01 0.01 0.01 0.01 0.02 0.03 0.04 0.10 0.17 0.21 0.21 0.21 0.15 0.14 0.24 0.34 0.40 0.46 0.53 0.48 0.49 0.50 0.47 0.41 0.39 0.39 0.42 0.46 0.45 0.41 0.38 0.35 0.34 0.37 0.42 0.46 0.48 0.47 0.49
0.00 0.00 0.00 0.00 0.01 0.01 0.01 0.01 0.01 0.02 0.05 0.07 0.07 0.09 0.10 0.09 0.09 0.10 0.16 0.26 0.34 0.44 0.60 0.65 0.69 0.69 0.63 0.53 0.43 0.36 0.32 0.33 0.35 0.36 0.36 0.35 0.33 0.33 0.36 0.36 0.39 0.38 0.38
0.00 0.00 0.00 0.00 0.01 0.01 0.02 0.04 0.05 0.04 0.02 0.01 0.01 0.02 0.08 0.15 0.19 0.23 0.24 0.27 0.30 0.42 0.61 0.68 0.69 0.66 0.58 0.52 0.46 0.37 0.31 0.28 0.29 0.29 0.29 0.29 0.29 0.30 0.32 0.31 0.30 0.30 0.30
0.00 0.00 0.00 0.03 0.05 0.05 0.05 0.09 0.13 0.17 0.14 0.07 0.01 0.01 0.04 0.11 0.15 0.18 0.24 0.36 0.39 0.45 0.53 0.54 0.53 0.41 0.32 0.29 0.25 0.21 0.18 0.17 0.19 0.19 0.17 0.18 0.20 0.20 0.21 0.23 0.25 0.27 0.26
0.00 0.01 0.03 0.07 0.09 0.07 0.08 0.13 0.14 0.10 0.08 0.07 0.04 0.02 0.01 0.04 0.06 0.08 0.16 0.34 0.35 0.29 0.24 0.20 0.18 0.15 0.11 0.10 0.10 0.10 0.09 0.08 0.08 0.08 0.07 0.07 0.09 0.11 0.12 0.14 0.17 0.21 0.24
0.00 0.00 0.02 0.07 0.09 0.07 0.07 0.07 0.07 0.05 0.03 0.04 0.04 0.04 0.04 0.05 0.07 0.08 0.09 0.14 0.12 0.08 0.07 0.07 0.06 0.05 0.05 0.05 0.04 0.04 0.04 0.04 0.04 0.05 0.04 0.05 0.06 0.07 0.09 0.12 0.16 0.18 0.19
0.00 0.00 0.00 0.03 0.05 0.04 0.03 0.03 0.03 0.02 0.02 0.03 0.02 0.01 0.03 0.07 0.08 0.07 0.07 0.06 0.05 0.04 0.04 0.06 0.04 0.03 0.03 0.03 0.04 0.04 0.04 0.04 0.04 0.04 0.04 0.05 0.06 0.07 0.09 0.13 0.17 0.20 0.21
0.00 0.01 0.02 0.04 0.04 0.02 0.02 0.03 0.05 0.04 0.02 0.03 0.03 0.02 0.03 0.06 0.07 0.06 0.06 0.06 0.04 0.04 0.06 0.08 0.07 0.06 0.05 0.05 0.05 0.04 0.05 0.05 0.05 0.04 0.04 0.04 0.05 0.06 0.07 0.11 0.14 0.18 0.23
0.00 0.00 0.01 0.03 0.03 0.01 0.01 0.03 0.04 0.04 0.02 0.02 0.03 0.04 0.04 0.06 0.06 0.07 0.07 0.07 0.08 0.08 0.08 0.09 0.11 0.10 0.08 0.06 0.07 0.07 0.07 0.06 0.06 0.06 0.06 0.06 0.06 0.07 0.08 0.08 0.10 0.12 0.16
0.00 0.00 0.01 0.02 0.02 0.01 0.02 0.03 0.04 0.03 0.03 0.04 0.05 0.05 0.05 0.06 0.04 0.04 0.05 0.06 0.08 0.09 0.08 0.07 0.08 0.07 0.07 0.07 0.08 0.09 0.12 0.12 0.08 0.07 0.07 0.08 0.09 0.09 0.12 0.14 0.18 0.19 0.20
0.00 0.00 0.01 0.02 0.02 0.01 0.01 0.02 0.03 0.03 0.03 0.04 0.04 0.03 0.03 0.04 0.03 0.03 0.04 0.05 0.07 0.08 0.07 0.07 0.08 0.07 0.06 0.06 0.07 0.09 0.14 0.16 0.13 0.11 0.09 0.08 0.10 0.13 0.17 0.24 0.29 0.31 0.32
0.00 0.00 0.00 0.01 0.01 0.01 0.01 0.02 0.03 0.02 0.02 0.02 0.02 0.02 0.03 0.03 0.02 0.02 0.03 0.03 0.04 0.05 0.04 0.05 0.07 0.06 0.06 0.07 0.08 0.12 0.15 0.14 0.13 0.12 0.09 0.07 0.09 0.11 0.13 0.15 0.19 0.24 0.27

GEFSGL_prec_meanprecacc_096.txt.gz
Total_Precipitation_Accumulation
0.78 0.78 0.78 0.76 0.74 0.74 0.74 0.71 0.72 0.77 0.76 0.79 0.93 0.98 1.03 1.08 1.25 1.50 1.66 1.69 1.62 1.60 1.58 1.62 1.73 1.83 2.07 2.05 1.95 1.82 1.66 1.47 1.28 1.11 0.90 0.70 0.75 0.79 0.84 0.76 0.69 0.65 0.53
0.88 0.86 0.78 0.70 0.67 0.67 0.64 0.57 0.56 0.53 0.52 0.63 0.75 0.79 0.83 0.86 1.00 1.28 1.48 1.52 1.47 1.38 1.35 1.41 1.60 1.78 2.00 2.11 2.07 1.94 1.80 1.67 1.52 1.39 1.19 0.96 0.84 0.83 0.91 0.97 0.91 0.84 0.76
0.92 0.82 0.74 0.68 0.59 0.55 0.49 0.45 0.50 0.51 0.55 0.64 0.73 0.79 0.81 0.85 0.85 0.93 1.05 1.17 1.19 1.15 1.14 1.14 1.19 1.36 1.62 1.82 1.89 1.91 1.93 1.89 1.81 1.62 1.39 1.21 1.06 0.93 0.94 0.96 0.94 0.97 0.91
1.06 0.96 0.85 0.73 0.62 0.56 0.49 0.45 0.43 0.45 0.51 0.56 0.60 0.68 0.77 0.81 0.79 0.78 0.80 0.85 0.85 0.90 0.95 0.98 1.01 1.05 1.21 1.37 1.50 1.71 1.92 1.91 1.89 1.80 1.57 1.31 1.15 1.04 1.04 1.05 1.06 1.02 0.99
1.08 1.07 0.93 0.74 0.61 0.54 0.50 0.43 0.40 0.41 0.42 0.47 0.52 0.55 0.62 0.68 0.72 0.74 0.64 0.61 0.65 0.72 0.77 0.77 0.79 0.87 0.97 1.04 1.11 1.40 1.71 1.84 1.81 1.75 1.64 1.44 1.19 1.08 0.99 0.95 1.04 1.19 1.19
0.99 0.97 0.75 0.58 0.46 0.41 0.41 0.39 0.35 0.34 0.39 0.44 0.44 0.46 0.56 0.57 0.68 0.65 0.50 0.49 0.52 0.62 0.71 0.68 0.62 0.61 0.66 0.73 0.80 0.94 1.16 1.37 1.58 1.69 1.66 1.46 1.27 1.12 1.06 1.06 1.07 1.13 1.20
0.64 0.60 0.51 0.40 0.38 0.41 0.43 0.37 0.34 0.34 0.35 0.38 0.39 0.40 0.45 0.57 0.58 0.42 0.39 0.43 0.50 0.56 0.63 0.68 0.62 0.53 0.57 0.60 0.70 0.78 0.77 0.82 1.05 1.32 1.45 1.44 1.47 1.29 1.20 1.13 1.07 1.11 1.12
0.40 0.40 0.34 0.30 0.31 0.34 0.35 0.34 0.40 0.44 0.42 0.42 0.44 0.44 0.44 0.49 0.46 0.33 0.34 0.38 0.45 0.52 0.61 0.69 0.73 0.66 0.65 0.73 0.72 0.74 0.69 0.65 0.81 0.82 0.96 1.24 1.37 1.40 1.33 1.34 1.45 1.38 1.22
0.12 0.13 0.12 0.12 0.13 0.14 0.16 0.22 0.33 0.40 0.42 0.44 0.48 0.48 0.43 0.40 0.39 0.30 0.29 0.38 0.46 0.53 0.56 0.62 0.69 0.65 0.77 0.84 0.81 0.90 0.87 0.78 0.90 0.93 0.95 0.97 1.03 1.11 1.20 1.24 1.30 1.34 1.31
0.01 0.01 0.01 0.02 0.02 0.04 0.06 0.09 0.15 0.19 0.24 0.32 0.34 0.38 0.41 0.38 0.46 0.33 0.32 0.38 0.49 0.60 0.63 0.62 0.75 0.74 0.78 0.75 0.72 0.91 0.94 0.83 0.74 0.79 0.80 0.77 0.69 0.74 0.89 1.02 1.16 1.20 1.14
0.00 0.00 0.00 0.00 0.00 0.01 0.02 0.03 0.06 0.08 0.12 0.17 0.21 0.27 0.34 0.39 0.46 0.43 0.46 0.48 0.54 0.68 0.70 0.63 0.57 0.66 0.55 0.60 0.63 0.66 0.87 0.87 0.75 0.77 0.76 0.71 0.63 0.62 0.68 0.77 0.94 1.07 1.05
0.00 0.00 0.00 0.00 0.00 0.01 0.01 0.02 0.02 0.03 0.06 0.09 0.11 0.15 0.22 0.27 0.33 0.38 0.38 0.41 0.47 0.60 0.68 0.57 0.54 0.61 0.46 0.45 0.47 0.57 0.68 0.77 0.73 0.74 0.71 0.70 0.64 0.56 0.56 0.63 0.70 0.72 0.71
0.00 0.00 0.00 0.00 0.01 0.01 0.01 0.01 0.02 0.03 0.05 0.06 0.09 0.15 0.21 0.28 0.29 0.25 0.22 0.24 0.29 0.43 0.49 0.50 0.50 0.47 0.43 0.40 0.41 0.47 0.53 0.61 0.73 0.71 0.63 0.60 0.56 0.52 0.50 0.50 0.55 0.59 0.59
0.00 0.00 0.00 0.01 0.01 0.01 0.02 0.03 0.03 0.04 0.05 0.09 0.13 0.18 0.23 0.26 0.28 0.25 0.26 0.28 0.27 0.32 0.34 0.34 0.37 0.39 0.43 0.42 0.39 0.42 0.49 0.58 0.61 0.57 0.51 0.49 0.49 0.50 0.53 0.53 0.53 0.56 0.61
0.00 0.00 0.00 0.00 0.01 0.01 0.01 0.01 0.02 0.03 0.04 0.10 0.17 0.21 0.21 0.21 0.15 0.14 0.24 0.34 0.40 0.46 0.53 0.48 0.49 0.50 0.47 0.41 0.39 0.39 0.42 0.46 0.45 0.42 0.39 0.36 0.35 0.39 0.44 0.48 0.49 0.48 0.51
0.00 0.00 0.00 0.00 0.01 0.01 0.01 0.01 0.01 0.02 0.05 0.07 0.07 0.09 0.10 0.09 0.09 0.10 0.16 0.26 0.34 0.44 0.60 0.65 0.69 0.69 0.63 0.53 0.43 0.36 0.32 0.33 0.35 0.36 0.36 0.35 0.33 0.34 0.38 0.38 0.40 0.39 0.40
0.00 0.00 0.00 0.00 0.01 0.01 0.02 0.04 0.05 0.04 0.02 0.01 0.01 0.02 0.08 0.15 0.19 0.23 0.24 0.28 0.30 0.42 0.61 0.68 0.69 0.66 0.58 0.52 0.46 0.37 0.31 0.28 0.29 0.29 0.29 0.30 0.30 0.31 0.33 0.32 0.31 0.32 0.32
0.00 0.00 0.00 0.03 0.05 0.05 0.05 0.09 0.13 0.17 0.14 0.07 0.01 0.01 0.04 0.11 0.15 0.18 0.24 0.36 0.39 0.45 0.53 0.54 0.53 0.41 0.32 0.29 0.25 0.21 0.18 0.17 0.19 0.19 0.17 0.18 0.21 0.21 0.22 0.24 0.27 0.29 0.29
0.00 0.01 0.03 0.07 0.09 0.07 0.08 0.13 0.14 0.10 0.08 0.07 0.04 0.02 0.01 0.04 0.06 0.08 0.16 0.34 0.35 0.30 0.24 0.20 0.18 0.15 0.11 0.10 0.10 0.10 0.09 0.08 0.08 0.08 0.07 0.07 0.10 0.12 0.13 0.16 0.19 0.23 0.26
0.00 0.00 0.02 0.07 0.09 0.07 0.07 0.07 0.07 0.05 0.03 0.04 0.04 0.04 0.04 0.05 0.07 0.08 0.09 0.14 0.13 0.09 0.07 0.07 0.06 0.05 0.05 0.05 0.04 0.04 0.04 0.04 0.04 0.05 0.04 0.05 0.06 0.07 0.10 0.13 0.17 0.19 0.21
0.00 0.00 0.00 0.03 0.05 0.04 0.03 0.03 0.03 0.02 0.02 0.03 0.02 0.01 0.03 0.07 0.08 0.07 0.07 0.06 0.05 0.04 0.04 0.06 0.04 0.03 0.03 0.04 0.04 0.04 0.04 0.05 0.04 0.04 0.04 0.05 0.06 0.07 0.10 0.14 0.18 0.21 0.23
0.00 0.01 0.02 0.04 0.04 0.02 0.02 0.03 0.05 0.04 0.02 0.03 0.03 0.02 0.03 0.06 0.07 0.06 0.06 0.06 0.04 0.04 0.06 0.08 0.08 0.06 0.05 0.05 0.05 0.05 0.05 0.05 0.05 0.05 0.05 0.05 0.05 0.06 0.08 0.12 0.15 0.20 0.24
0.00 0.00 0.01 0.03 0.03 0.01 0.01 0.03 0.04 0.04 0.02 0.02 0.03 0.04 0.04 0.06 0.06 0.07 0.07 0.08 0.08 0.08 0.08 0.09 0.11 0.10 0.08 0.07 0.07 0.08 0.08 0.07 0.06 0.07 0.07 0.06 0.06 0.07 0.08 0.09 0.11 0.14 0.18
0.00 0.00 0.01 0.02 0.02 0.01 0.02 0.03 0.04 0.03 0.03 0.04 0.05 0.05 0.05 0.06 0.05 0.04 0.05 0.06 0.08 0.10 0.08 0.07 0.08 0.07 0.07 0.07 0.09 0.09 0.12 0.13 0.09 0.08 0.08 0.09 0.09 0.10 0.12 0.15 0.19 0.21 0.22
0.00 0.00 0.01 0.02 0.02 0.01 0.01 0.02 0.03 0.03 0.03 0.04 0.04 0.03 0.03 0.04 0.03 0.03 0.04 0.05 0.07 0.08 0.07 0.07 0.08 0.07 0.06 0.06 0.07 0.09 0.14 0.16 0.14 0.12 0.09 0.09 0.10 0.13 0.18 0.25 0.30 0.32 0.33
0.00 0.00 0.00 0.01 0.01 0.01 0.01 0.02 0.03 0.02 0.02 0.02 0.02 0.02 0.03 0.03 0.02 0.02 0.03 0.03 0.04 0.05 0.04 0.05 0.07 0.06 0.06 0.07 0.08 0.12 0.15 0.14 0.13 0.13 0.09 0.07 0.09 0.12 0.13 0.16 0.20 0.25 0.29

GEFSGL_prec_meanprecacc_102.txt.gz
Total_Precipitation_Accumulation
0.78 0.78 0.78 0.76 0.74 0.74 0.74 0.71 0.72 0.77 0.77 0.80 0.95 1.00 1.06 1.13 1.29 1.54 1.70 1.72 1.64 1.61 1.60 1.65 1.77 1.87 2.11 2.08 1.98 1.85 1.69 1.51 1.32 1.15 0.93 0.73 0.78 0.82 0.87 0.80 0.73 0.69 0.57
0.88 0.86 0.78 0.70 0.67 0.67 0.64 0.57 0.57 0.53 0.53 0.64 0.76 0.81 0.85 0.88 1.04 1.32 1.51 1.54 1.48 1.40 1.37 1.43 1.62 1.80 2.02 2.13 2.09 1.96 1.83 1.70 1.55 1.42 1.22 0.99 0.87 0.86 0.95 1.00 0.94 0.88 0.80
0.92 0.82 0.74 0.68 0.59 0.55 0.49 0.45 0.50 0.51 0.56 0.65 0.74 0.79 0.82 0.86 0.87 0.96 1.08 1.20 1.21 1.17 1.16 1.17 1.21 1.37 1.64 1.84 1.91 1.93 1.96 1.92 1.84 1.65 1.42 1.25 1.10 0.96 0.97 1.00 0.97 1.01 0.95
1.06 0.96 0.85 0.73 0.62 0.56 0.49 0.45 0.43 0.45 0.51 0.56 0.60 0.68 0.78 0.81 0.80 0.80 0.81 0.87 0.88 0.92 0.96 1.00 1.03 1.06 1.22 1.40 1.54 1.74 1.95 1.94 1.92 1.83 1.60 1.34 1.18 1.07 1.08 1.08 1.09 1.06 1.03
1.08 1.07 0.93 0.74 0.61 0.54 0.50 0.43 0.40 0.41 0.42 0.47 0.52 0.55 0.62 0.69 0.74 0.75 0.65 0.62 0.68 0.74 0.78 0.79 0.81 0.89 1.00 1.08 1.15 1.45 1.75 1.87 1.84 1.79 1.68 1.48 1.22 1.12 1.02 0.99 1.08 1.23 1.23
0.99 0.97 0.75 0.58 0.46 0.41 0.41 0.39 0.35 0.34 0.39 0.44 0.44 0.46 0.56 0.57 0.68 0.65 0.51 0.50 0.53 0.63 0.72 0.70 0.64 0.64 0.70 0.76 0.83 0.98 1.21 1.41 1.62 1.74 1.70 1.50 1.31 1.16 1.10 1.11 1.12 1.17 1.24
0.64 0.60 0.51 0.40 0.38 0.41 0.43 0.37 0.34 0.34 0.35 0.38 0.39 0.40 0.45 0.57 0.58 0.42 0.39 0.43 0.51 0.57 0.65 0.70 0.63 0.54 0.60 0.63 0.72 0.80 0.80 0.86 1.09 1.36 1.49 1.48 1.52 1.33 1.24 1.17 1.12 1.16 1.18
0.40 0.40 0.34 0.30 0.31 0.34 0.35 0.34 0.40 0.44 0.42 0.42 0.44 0.44 0.44 0.49 0.46 0.33 0.34 0.38 0.45 0.52 0.61 0.70 0.75 0.67 0.66 0.75 0.74 0.76 0.71 0.68 0.84 0.85 1.00 1.29 1.42 1.44 1.36 1.39 1.51 1.44 1.27
0.12 0.13 0.12 0.12 0.13 0.14 0.16 0.22 0.33 0.40 0.42 0.44 0.48 0.48 0.43 0.40 0.39 0.30 0.29 0.38 0.46 0.53 0.56 0.62 0.69 0.66 0.77 0.85 0.82 0.91 0.89 0.79 0.91 0.95 0.98 1.00 1.06 1.14 1.23 1.28 1.35 1.39 1.36
0.01 0.01 0.01 0.02 0.02 0.04 0.06 0.09 0.15 0.19 0.24 0.32 0.34 0.38 0.41 0.38 0.46 0.33 0.32 0.38 0.49 0.60 0.63 0.62 0.76 0.75 0.78 0.76 0.73 0.92 0.95 0.85 0.75 0.81 0.81 0.78 0.71 0.77 0.92 1.05 1.21 1.25 1.20
0.00 0.00 0.00 0.00 0.00 0.01 0.02 0.03 0.06 0.08 0.12 0.17 0.21 0.27 0.34 0.39 0.46 0.43 0.46 0.48 0.54 0.68 0.70 0.63 0.57 0.66 0.56 0.60 0.63 0.67 0.87 0.87 0.76 0.78 0.78 0.73 0.66 0.65 0.71 0.80 0.98 1.12 1.11
0.00 0.00 0.00 0.00 0.00 0.01 0.01 0.02 0.02 0.03 0.06 0.09 0.11 0.15 0.22 0.27 0.33 0.38 0.38 0.41 0.47 0.60 0.68 0.57 0.54 0.61 0.47 0.45 0.47 0.57 0.69 0.78 0.74 0.76 0.74 0.73 0.66 0.58 0.59 0.66 0.73 0.76 0.76
0.00 0.00 0.00 0.00 0.01 0.01 0.01 0.01 0.02 0.03 0.05 0.06 0.09 0.15 0.21 0.28 0.29 0.25 0.22 0.24 0.29 0.43 0.49 0.50 0.50 0.47 0.43 0.40 0.41 0.47 0.53 0.62 0.74 0.73 0.66 0.64 0.58 0.54 0.52 0.52 0.58 0.63 0.63
0.00 0.00 0.00 0.01 0.01 0.01 0.02 0.03 0.03 0.04 0.05 0.09 0.13 0.18 0.23 0.26 0.28 0.25 0.26 0.28 0.27 0.32 0.34 0.34 0.37 0.39 0.43 0.42 0.39 0.42 0.49 0.58 0.62 0.58 0.52 0.51 0.51 0.52 0.55 0.55 0.56 0.59 0.64
0.00 0.00 0.00 0.00 0.01 0.01 0.01 0.01 0.02 0.03 0.04 0.10 0.17 0.21 0.21 0.21 0.15 0.14 0.24 0.34 0.40 0.46 0.53 0.48 0.50 0.50 0.47 0.42 0.39 0.40 0.43 0.47 0.46 0.43 0.40 0.37 0.36 0.40 0.46 0.49 0.51 0.50 0.53
0.00 0.00 0.00 0.00 0.01 0.01 0.01 0.01 0.01 0.02 0.05 0.07 0.07 0.09 0.10 0.09 0.09 0.10 0.16 0.26 0.34 0.45 0.60 0.65 0.69 0.70 0.63 0.53 0.43 0.36 0.32 0.33 0.35 0.37 0.37 0.36 0.34 0.35 0.39 0.40 0.42 0.40 0.41
0.00 0.00 0.00 0.00 0.01 0.01 0.02 0.04 0.05 0.04 0.02 0.01 0.01 0.02 0.08 0.15 0.19 0.23 0.24 0.28 0.31 0.42 0.61 0.68 0.69 0.67 0.59 0.52 0.46 0.38 0.31 0.28 0.29 0.30 0.29 0.30 0.30 0.31 0.34 0.34 0.33 0.33 0.33
0.00 0.00 0.00 0.03 0.05 0.05 0.05 0.09 0.13 0.17 0.14 0.07 0.01 0.01 0.04 0.12 0.15 0.18 0.25 0.37 0.39 0.45 0.53 0.54 0.53 0.41 0.33 0.29 0.25 0.21 0.18 0.17 0.19 0.19 0.17 0.19 0.21 0.21 0.22 0.25 0.28 0.30 0.31
0.00 0.01 0.03 0.07 0.09 0.07 0.08 0.13 0.14 0.10 0.08 0.07 0.04 0.02 0.01 0.04 0.06 0.08 0.16 0.34 0.36 0.30 0.25 0.21 0.19 0.16 0.11 0.11 0.10 0.10 0.09 0.08 0.08 0.08 0.07 0.08 0.10 0.12 0.14 0.16 0.20 0.24 0.27
0.00 0.00 0.02 0.07 0.09 0.07 0.07 0.07 0.07 0.05 0.03 0.04 0.04 0.04 0.04 0.05 0.07 0.08 0.09 0.14 0.13 0.09 0.07 0.07 0.07 0.05 0.05 0.05 0.04 0.04 0.04 0.04 0.05 0.05 0.05 0.05 0.06 0.08 0.10 0.14 0.17 0.20 0.21
0.00 0.00 0.00 0.03 0.05 0.04 0.03 0.03 0.03 0.02 0.02 0.03 0.02 0.01 0.03 0.07 0.08 0.07 0.07 0.06 0.05 0.04 0.04 0.06 0.04 0.03 0.03 0.04 0.04 0.04 0.04 0.05 0.04 0.04 0.04 0.05 0.06 0.08 0.10 0.14 0.19 0.22 0.23
0.00 0.01 0.02 0.04 0.04 0.02 0.02 0.03 0.05 0.04 0.02 0.03 0.03 0.02 0.03 0.06 0.07 0.06 0.06 0.06 0.04 0.04 0.06 0.08 0.08 0.06 0.05 0.05 0.05 0.05 0.05 0.05 0.05 0.05 0.05 0.05 0.05 0.06 0.08 0.12 0.16 0.20 0.25
0.00 0.00 0.01 0.03 0.03 0.01 0.01 0.03 0.04 0.04 0.02 0.02 0.03 0.04 0.04 0.06 0.06 0.07 0.07 0.08 0.08 0.09 0.08 0.09 0.11 0.10 0.08 0.07 0.08 0.08 0.08 0.07 0.07 0.07 0.07 0.07 0.07 0.07 0.09 0.10 0.11 0.14 0.18
0.00 0.00 0.01 0.02 0.02 0.01 0.02 0.03 0.04 0.03 0.03 0.04 0.05 0.05 0.05 0.06 0.05 0.04 0.05 0.06 0.08 0.10 0.08 0.08 0.08 0.08 0.07 0.08 0.09 0.09 0.13 0.13 0.09 0.08 0.08 0.09 0.10 0.10 0.12 0.15 0.19 0.21 0.22
0.00 0.00 0.01 0.02 0.02 0.01 0.01 0.02 0.03 0.03 0.03 0.04 0.04 0.03 0.03 0.04 0.03 0.03 0.04 0.05 0.07 0.08 0.07 0.07 0.08 0.07 0.06 0.06 0.07 0.09 0.15 0.16 0.14 0.12 0.09 0.09 0.11 0.14 0.18 0.25 0.31 0.33 0.34
0.00 0.00 0.00 0.01 0.01 0.01 0.01 0.02 0.03 0.02 0.02 0.02 0.02 0.02 0.03 0.03 0.02 0.02 0.03 0.03 0.04 0.05 0.04 0.05 0.07 0.06 0.06 0.07 0.08 0.12 0.15 0.15 0.13 0.13 0.09 0.08 0.10 0.12 0.14 0.16 0.21 0.25 0.29

GEFSGL_prec_meanprecacc_108.txt.gz
Total_Precipitation_Accumulation
0.78 0.78 0.78 0.76 0.74 0.74 0.74 0.71 0.73 0.78 0.78 0.81 0.96 1.01 1.08 1.16 1.33 1.58 1.75 1.76 1.67 1.65 1.63 1.69 1.82 1.93 2.16 2.13 2.04 1.92 1.76 1.57 1.38 1.20 0.97 0.77 0.81 0.85 0.90 0.85 0.78 0.74 0.62
0.88 0.86 0.78 0.70 0.67 0.67 0.64 0.57 0.57 0.54 0.54 0.66 0.77 0.82 0.87 0.91 1.08 1.37 1.56 1.59 1.53 1.44 1.41 1.47 1.66 1.86 2.06 2.18 2.14 2.01 1.87 1.74 1.59 1.46 1.26 1.03 0.90 0.88 0.98 1.04 0.98 0.93 0.86
0.92 0.82 0.74 0.68 0.59 0.55 0.49 0.45 0.51 0.51 0.57 0.66 0.75 0.80 0.83 0.88 0.90 1.00 1.15 1.26 1.25 1.19 1.19 1.21 1.24 1.41 1.67 1.88 1.95 1.97 1.99 1.95 1.88 1.70 1.45 1.28 1.12 0.98 1.00 1.03 1.00 1.06 1.00
1.06 0.96 0.85 0.73 0.62 0.56 0.49 0.45 0.43 0.45 0.51 0.57 0.61 0.69 0.78 0.82 0.81 0.82 0.86 0.92 0.91 0.94 0.99 1.04 1.06 1.08 1.25 1.43 1.57 1.78 1.98 1.97 1.96 1.87 1.63 1.37 1.21 1.11 1.11 1.13 1.13 1.11 1.08
1.08 1.07 0.93 0.74 0.61 0.54 0.50 0.43 0.40 0.41 0.42 0.48 0.53 0.56 0.63 0.70 0.74 0.75 0.66 0.64 0.70 0.77 0.82 0.82 0.83 0.90 1.02 1.10 1.17 1.48 1.79 1.92 1.88 1.83 1.72 1.52 1.26 1.17 1.07 1.04 1.14 1.29 1.29
0.99 0.97 0.75 0.58 0.46 0.41 0.41 0.39 0.35 0.34 0.39 0.44 0.44 0.47 0.56 0.57 0.68 0.65 0.51 0.51 0.55 0.65 0.75 0.73 0.65 0.66 0.72 0.76 0.84 0.99 1.23 1.44 1.65 1.78 1.75 1.55 1.35 1.21 1.15 1.17 1.19 1.24 1.30
0.64 0.60 0.51 0.40 0.38 0.41 0.43 0.37 0.34 0.34 0.35 0.38 0.39 0.40 0.46 0.57 0.58 0.42 0.39 0.44 0.52 0.58 0.66 0.72 0.65 0.55 0.61 0.64 0.74 0.81 0.82 0.87 1.11 1.39 1.53 1.52 1.55 1.38 1.30 1.23 1.18 1.23 1.24
0.40 0.40 0.34 0.30 0.31 0.34 0.35 0.34 0.40 0.44 0.42 0.42 0.44 0.44 0.44 0.49 0.46 0.33 0.34 0.38 0.46 0.53 0.63 0.72 0.76 0.68 0.67 0.76 0.76 0.78 0.74 0.70 0.85 0.87 1.03 1.32 1.45 1.48 1.41 1.43 1.56 1.50 1.35
0.12 0.13 0.12 0.12 0.13 0.14 0.16 0.22 0.33 0.40 0.42 0.44 0.48 0.48 0.43 0.40 0.39 0.30 0.29 0.38 0.46 0.53 0.56 0.62 0.69 0.66 0.77 0.85 0.84 0.95 0.92 0.82 0.92 0.96 0.99 1.02 1.08 1.17 1.26 1.32 1.39 1.44 1.42
0.01 0.01 0.01 0.02 0.02 0.04 0.06 0.09 0.15 0.19 0.24 0.32 0.34 0.38 0.41 0.38 0.46 0.33 0.32 0.38 0.49 0.60 0.64 0.63 0.76 0.75 0.78 0.76 0.74 0.95 0.97 0.87 0.78 0.83 0.83 0.79 0.73 0.78 0.93 1.07 1.25 1.30 1.26
0.00 0.00 0.00 0.00 0.00 0.01 0.02 0.03 0.06 0.08 0.12 0.17 0.21 0.27 0.34 0.39 0.46 0.43 0.46 0.48 0.54 0.68 0.70 0.63 0.58 0.66 0.56 0.60 0.63 0.68 0.88 0.87 0.77 0.80 0.81 0.75 0.68 0.68 0.74 0.84 1.03 1.17 1.16
0.00 0.00 0.00 0.00 0.00 0.01 0.01 0.02 0.02 0.03 0.06 0.09 0.11 0.16 0.22 0.27 0.33 0.38 0.38 0.41 0.47 0.60 0.68 0.57 0.55 0.61 0.47 0.45 0.47 0.57 0.69 0.78 0.76 0.78 0.77 0.76 0.69 0.61 0.62 0.69 0.76 0.80 0.79
0.00 0.00 0.00 0.00 0.01 0.01 0.01 0.01 0.02 0.03 0.05 0.06 0.09 0.15 0.21 0.28 0.29 0.25 0.22 0.24 0.29 0.43 0.49 0.50 0.50 0.47 0.43 0.41 0.42 0.47 0.54 0.63 0.76 0.76 0.69 0.67 0.60 0.56 0.54 0.54 0.60 0.66 0.66
0.00 0.00 0.00 0.01 0.01 0.01 0.02 0.03 0.03 0.04 0.05 0.09 0.14 0.18 0.23 0.26 0.28 0.25 0.26 0.28 0.27 0.32 0.34 0.34 0.37 0.40 0.43 0.42 0.40 0.43 0.50 0.59 0.63 0.60 0.55 0.53 0.53 0.54 0.58 0.58 0.59 0.63 0.68
0.00 0.00 0.00 0.00 0.01 0.01 0.01 0.01 0.02 0.03 0.04 0.10 0.17 0.21 0.21 0.21 0.15 0.14 0.24 0.34 0.40 0.46 0.53 0.49 0.50 0.50 0.47 0.42 0.39 0.40 0.43 0.47 0.47 0.44 0.42 0.39 0.37 0.41 0.48 0.51 0.53 0.53 0.56
0.00 0.00 0.00 0.00 0.01 0.01 0.01 0.01 0.01 0.02 0.05 0.07 0.07 0.09 0.10 0.09 0.09 0.10 0.16 0.26 0.34 0.45 0.60 0.66 0.69 0.70 0.64 0.53 0.43 0.37 0.32 0.33 0.35 0.37 0.37 0.36 0.35 0.36 0.40 0.41 0.43 0.42 0.43
0.00 0.00 0.00 0.00 0.01 0.01 0.02 0.04 0.05 0.04 0.02 0.01 0.01 0.02 0.08 0.15 0.19 0.23 0.24 0.28 0.31 0.42 0.61 0.68 0.69 0.67 0.59 0.52 0.47 0.38 0.32 0.28 0.29 0.30 0.29 0.30 0.31 0.32 0.35 0.34 0.33 0.34 0.34
0.00 0.00 0.00 0.03 0.05 0.05 0.05 0.09 0.13 0.17 0.14 0.07 0.01 0.01 0.04 0.12 0.15 0.18 0.25 0.37 0.39 0.45 0.53 0.54 0.53 0.42 0.33 0.29 0.26 0.22 0.18 0.18 0.19 0.19 0.18 0.19 0.21 0.22 0.23 0.25 0.28 0.31 0.32
0.00 0.01 0.03 0.07 0.09 0.07 0.08 0.13 0.14 0.10 0.08 0.07 0.04 0.02 0.01 0.04 0.06 0.08 0.16 0.34 0.36 0.30 0.25 0.21 0.19 0.16 0.12 0.11 0.10 0.10 0.09 0.08 0.08 0.08 0.07 0.08 0.10 0.12 0.14 0.17 0.20 0.24 0.27
0.00 0.00 0.02 0.07 0.09 0.07 0.07 0.07 0.07 0.05 0.03 0.04 0.04 0.04 0.04 0.05 0.07 0.08 0.09 0.14 0.13 0.09 0.07 0.07 0.07 0.05 0.05 0.05 0.05 0.04 0.04 0.04 0.05 0.05 0.05 0.05 0.06 0.08 0.10 0.14 0.17 0.20 0.22
0.00 0.00 0.00 0.03 0.05 0.04 0.03 0.03 0.03 0.02 0.02 0.03 0.02 0.01 0.03 0.07 0.08 0.07 0.07 0.06 0.05 0.04 0.04 0.06 0.04 0.03 0.03 0.04 0.04 0.04 0.04 0.05 0.04 0.04 0.04 0.05 0.06 0.08 0.10 0.14 0.19 0.22 0.23
0.00 0.01 0.02 0.04 0.04 0.02 0.02 0.03 0.05 0.04 0.02 0.03 0.03 0.02 0.03 0.06 0.07 0.06 0.06 0.06 0.04 0.04 0.06 0.08 0.08 0.06 0.05 0.05 0.05 0.05 0.05 0.05 0.05 0.05 0.05 0.05 0.05 0.06 0.08 0.12 0.16 0.20 0.25
0.00 0.00 0.01 0.03 0.03 0.01 0.01 0.03 0.05 0.04 0.02 0.02 0.03 0.04 0.04 0.06 0.06 0.07 0.07 0.08 0.08 0.09 0.08 0.09 0.11 0.10 0.08 0.07 0.08 0.08 0.08 0.07 0.07 0.07 0.07 0.07 0.07 0.08 0.09 0.10 0.11 0.14 0.18
0.00 0.01 0.01 0.03 0.03 0.01 0.02 0.03 0.04 0.03 0.03 0.04 0.05 0.05 0.05 0.06 0.05 0.04 0.05 0.06 0.08 0.10 0.08 0.08 0.08 0.08 0.07 0.08 0.09 0.10 0.13 0.13 0.09 0.08 0.08 0.09 0.10 0.10 0.12 0.15 0.19 0.21 0.22
0.01 0.01 0.01 0.02 0.02 0.02 0.01 0.02 0.03 0.03 0.03 0.04 0.04 0.03 0.03 0.04 0.03 0.03 0.04 0.05 0.07 0.08 0.07 0.07 0.08 0.07 0.06 0.06 0.08 0.09 0.15 0.16 0.14 0.12 0.10 0.09 0.11 0.14 0.18 0.25 0.31 0.33 0.34
0.01 0.01 0.01 0.01 0.01 0.01 0.01 0.02 0.03 0.02 0.02 0.02 0.02 0.02 0.03 0.03 0.02 0.02 0.03 0.03 0.04 0.05 0.04 0.05 0.07 0.06 0.06 0.07 0.08 0.12 0.16 0.15 0.13 0.13 0.09 0.08 0.10 0.12 0.14 0.17 0.21 0.26 0.30

GEFSGL_prec_meanprecacc_114.txt.gz
Total_Precipitation_Accumulation
0.78 0.78 0.78 0.76 0.74 0.74 0.74 0.71 0.73 0.78 0.79 0.82 0.96 1.03 1.10 1.18 1.34 1.59 1.76 1.77 1.69 1.67 1.65 1.71 1.85 1.96 2.18 2.16 2.06 1.94 1.78 1.58 1.40 1.24 1.02 0.82 0.86 0.90 0.96 0.91 0.83 0.77 0.65
0.88 0.86 0.78 0.70 0.67 0.67 0.64 0.57 0.57 0.55 0.54 0.66 0.78 0.83 0.88 0.93 1.09 1.38 1.58 1.61 1.56 1.46 1.43 1.51 1.72 1.91 2.12 2.22 2.17 2.03 1.90 1.75 1.61 1.50 1.31 1.05 0.92 0.92 1.02 1.08 1.01 0.95 0.88
0.92 0.82 0.74 0.68 0.59 0.55 0.49 0.45 0.51 0.51 0.57 0.66 0.75 0.80 0.84 0.89 0.92 1.02 1.18 1.29 1.27 1.22 1.23 1.26 1.29 1.47 1.73 1.93 1.98 1.99 2.01 1.97 1.89 1.71 1.47 1.30 1.15 1.01 1.02 1.06 1.03 1.08 1.02
1.06 0.96 0.85 0.73 0.62 0.56 0.49 0.45 0.43 0.45 0.51 0.57 0.61 0.69 0.79 0.84 0.83 0.83 0.87 0.94 0.95 0.99 1.03 1.09 1.11 1.12 1.28 1.45 1.59 1.79 2.00 1.99 1.97 1.88 1.64 1.40 1.24 1.12 1.13 1.14 1.14 1.13 1.11
1.08 1.07 0.93 0.74 0.61 0.54 0.50 0.43 0.40 0.41 0.42 0.48 0.53 0.56 0.63 0.70 0.76 0.76 0.67 0.66 0.73 0.80 0.84 0.84 0.85 0.92 1.04 1.11 1.18 1.50 1.81 1.93 1.90 1.85 1.73 1.53 1.28 1.18 1.08 1.05 1.15 1.32 1.32
0.99 0.97 0.75 0.58 0.46 0.41 0.41 0.39 0.35 0.34 0.39 0.44 0.44 0.47 0.56 0.58 0.68 0.66 0.52 0.52 0.56 0.66 0.75 0.74 0.67 0.67 0.73 0.77 0.85 1.01 1.25 1.46 1.66 1.80 1.76 1.56 1.36 1.22 1.16 1.18 1.20 1.26 1.32
0.64 0.60 0.51 0.40 0.38 0.41 0.43 0.37 0.34 0.34 0.35 0.38 0.39 0.40 0.46 0.57 0.58 0.42 0.40 0.44 0.52 0.58 0.66 0.73 0.66 0.56 0.61 0.65 0.75 0.83 0.83 0.89 1.13 1.41 1.55 1.53 1.57 1.39 1.31 1.24 1.19 1.23 1.26
0.40 0.40 0.34 0.30 0.31 0.34 0.35 0.34 0.40 0.44 0.42 0.42 0.44 0.44 0.44 0.49 0.46 0.33 0.34 0.38 0.46 0.53 0.63 0.72 0.77 0.68 0.67 0.76 0.77 0.79 0.74 0.70 0.86 0.88 1.05 1.33 1.46 1.49 1.42 1.45 1.57 1.51 1.37
0.12 0.13 0.12 0.12 0.13 0.14 0.16 0.22 0.33 0.40 0.42 0.44 0.48 0.48 0.43 0.40 0.39 0.30 0.29 0.38 0.46 0.53 0.56 0.62 0.69 0.66 0.78 0.85 0.84 0.95 0.92 0.82 0.92 0.96 0.99 1.02 1.10 1.18 1.28 1.34 1.41 1.47 1.44
0.01 0.01 0.01 0.02 0.02 0.04 0.06 0.09 0.15 0.19 0.24 0.32 0.34 0.38 0.41 0.38 0.46 0.33 0.32 0.38 0.49 0.60 0.64 0.63 0.76 0.75 0.78 0.76 0.74 0.95 0.97 0.87 0.78 0.83 0.83 0.80 0.73 0.79 0.95 1.09 1.27 1.33 1.28
0.00 0.00 0.00 0.00 0.00 0.01 0.02 0.03 0.06 0.08 0.12 0.17 0.21 0.27 0.34 0.39 0.46 0.43 0.46 0.48 0.54 0.68 0.70 0.63 0.58 0.66 0.56 0.60 0.64 0.68 0.88 0.88 0.78 0.81 0.82 0.76 0.69 0.69 0.75 0.85 1.04 1.19 1.19
0.00 0.00 0.00 0.00 0.00 0.01 0.01 0.02 0.02 0.03 0.06 0.09 0.11 0.16 0.22 0.27 0.33 0.38 0.38 0.41 0.47 0.60 0.68 0.57 0.55 0.61 0.47 0.45 0.47 0.57 0.69 0.79 0.77 0.80 0.79 0.77 0.70 0.62 0.63 0.70 0.77 0.81 0.81
0.00 0.00 0.00 0.00 0.01 0.01 0.01 0.01 0.02 0.03 0.05 0.06 0.09 0.15 0.21 0.28 0.29 0.25 0.22 0.24 0.29 0.43 0.49 0.50 0.50 0.47 0.43 0.41 0.42 0.47 0.54 0.63 0.77 0.77 0.70 0.68 0.61 0.57 0.55 0.55 0.61 0.66 0.67
0.00 0.00 0.00 0.01 0.01 0.01 0.02 0.03 0.03 0.04 0.05 0.09 0.14 0.19 0.23 0.26 0.28 0.25 0.26 0.28 0.27 0.32 0.34 0.34 0.37 0.40 0.43 0.42 0.40 0.43 0.50 0.59 0.63 0.60 0.55 0.53 0.54 0.55 0.59 0.58 0.59 0.63 0.68
0.00 0.00 0.00 0.00 0.01 0.01 0.01 0.01 0.02 0.03 0.04 0.10 0.17 0.21 0.21 0.21 0.15 0.14 0.24 0.34 0.40 0.46 0.53 0.49 0.50 0.50 0.47 0.42 0.39 0.40 0.43 0.47 0.47 0.44 0.42 0.39 0.37 0.42 0.48 0.51 0.53 0.53 0.56
0.00 0.00 0.00 0.00 0.01 0.01 0.01 0.01 0.01 0.02 0.05 0.07 0.07 0.09 0.10 0.09 0.09 0.10 0.16 0.26 0.34 0.45 0.60 0.66 0.69 0.70 0.64 0.53 0.43 0.37 0.32 0.33 0.35 0.37 0.38 0.37 0.35 0.36 0.40 0.41 0.43 0.42 0.43
0.00 0.00 0.00 0.00 0.01 0.01 0.02 0.04 0.05 0.04 0.02 0.01 0.01 0.02 0.08 0.15 0.19 0.23 0.24 0.28 0.31 0.42 0.61 0.68 0.69 0.67 0.59 0.52 0.47 0.38 0.32 0.28 0.29 0.30 0.29 0.30 0.31 0.32 0.35 0.34 0.33 0.34 0.34
0.00 0.00 0.01 0.03 0.05 0.05 0.05 0.09 0.13 0.17 0.14 0.07 0.01 0.01 0.04 0.12 0.15 0.18 0.25 0.37 0.39 0.45 0.53 0.54 0.53 0.42 0.33 0.29 0.26 0.22 0.18 0.18 0.20 0.19 0.18 0.19 0.21 0.22 0.23 0.25 0.28 0.31 0.32
0.00 0.01 0.03 0.07 0.09 0.07 0.08 0.13 0.14 0.10 0.08 0.07 0.04 0.02 0.01 0.04 0.06 0.08 0.16 0.34 0.36 0.30 0.25 0.21 0.19 0.16 0.12 0.11 0.10 0.10 0.09 0.08 0.08 0.08 0.07 0.08 0.10 0.12 0.14 0.17 0.20 0.24 0.27
0.00 0.00 0.02 0.07 0.09 0.07 0.07 0.08 0.07 0.05 0.03 0.04 0.04 0.04 0.04 0.05 0.07 0.08 0.09 0.14 0.13 0.09 0.07 0.07 0.07 0.05 0.05 0.05 0.05 0.04 0.04 0.04 0.05 0.05 0.05 0.05 0.06 0.08 0.10 0.14 0.17 0.20 0.22
0.00 0.00 0.01 0.03 0.05 0.04 0.04 0.04 0.03 0.03 0.02 0.03 0.02 0.01 0.03 0.07 0.08 0.07 0.07 0.06 0.05 0.04 0.04 0.06 0.04 0.03 0.03 0.04 0.04 0.04 0.04 0.05 0.04 0.04 0.04 0.05 0.06 0.08 0.10 0.14 0.19 0.22 0.23
0.00 0.01 0.03 0.05 0.05 0.03 0.03 0.04 0.06 0.04 0.03 0.03 0.03 0.02 0.03 0.06 0.07 0.06 0.06 0.06 0.04 0.04 0.06 0.08 0.08 0.06 0.05 0.05 0.05 0.05 0.05 0.05 0.05 0.05 0.05 0.05 0.05 0.06 0.08 0.12 0.16 0.20 0.25
0.01 0.02 0.03 0.05 0.05 0.03 0.04 0.05 0.06 0.05 0.03 0.03 0.04 0.04 0.04 0.06 0.06 0.07 0.07 0.08 0.08 0.09 0.08 0.09 0.11 0.10 0.08 0.07 0.08 0.08 0.08 0.07 0.07 0.07 0.07 0.07 0.07 0.08 0.09 0.10 0.11 0.14 0.18
0.02 0.02 0.03 0.05 0.06 0.05 0.05 0.07 0.07 0.04 0.04 0.05 0.05 0.05 0.06 0.06 0.05 0.04 0.05 0.06 0.08 0.10 0.08 0.08 0.08 0.08 0.07 0.08 0.09 0.10 0.13 0.13 0.09 0.08 0.08 0.09 0.10 0.10 0.13 0.15 0.19 0.21 0.22
0.02 0.03 0.03 0.05 0.05 0.04 0.04 0.05 0.06 0.05 0.05 0.05 0.04 0.04 0.04 0.04 0.03 0.03 0.04 0.05 0.07 0.08 0.07 0.07 0.08 0.07 0.06 0.06 0.08 0.09 0.15 0.17 0.14 0.12 0.10 0.09 0.11 0.14 0.18 0.25 0.31 0.33 0.34
0.03 0.03 0.04 0.04 0.04 0.04 0.04 0.04 0.05 0.05 0.04 0.04 0.03 0.04 0.04 0.04 0.03 0.02 0.03 0.03 0.04 0.05 0.04 0.05 0.07 0.06 0.06 0.07 0.08 0.12 0.16 0.15 0.14 0.13 0.09 0.08 0.10 0.13 0.15 0.17 0.21 0.26 0.30

GEFSGL_prec_meanprecacc_120.txt.gz
Total_Precipitation_Accumulation
0.78 0.78 0.78 0.76 0.74 0.74 0.74 0.71 0.73 0.78 0.79 0.82 0.96 1.03 1.11 1.18 1.35 1.60 1.76 1.77 1.70 1.68 1.67 1.73 1.86 1.96 2.19 2.17 2.09 1.96 1.80 1.60 1.43 1.26 1.05 0.86 0.91 0.97 1.02 0.98 0.89 0.84 0.69
0.88 0.86 0.78 0.70 0.67 0.67 0.64 0.57 0.57 0.55 0.54 0.66 0.78 0.83 0.88 0.93 1.09 1.39 1.58 1.62 1.56 1.47 1.45 1.54 1.73 1.92 2.14 2.23 2.19 2.04 1.92 1.77 1.63 1.53 1.35 1.09 0.98 0.99 1.10 1.15 1.08 1.00 0.91
0.92 0.82 0.74 0.68 0.59 0.55 0.49 0.45 0.51 0.52 0.57 0.66 0.75 0.80 0.84 0.89 0.92 1.02 1.18 1.29 1.28 1.22 1.24 1.28 1.33 1.51 1.75 1.95 2.00 2.02 2.04 2.00 1.92 1.75 1.54 1.36 1.19 1.07 1.10 1.13 1.09 1.13 1.06
1.06 0.96 0.85 0.73 0.62 0.56 0.49 0.45 0.43 0.45 0.51 0.57 0.61 0.69 0.79 0.84 0.83 0.83 0.87 0.95 0.96 0.99 1.04 1.10 1.14 1.15 1.31 1.49 1.62 1.82 2.03 2.03 2.01 1.90 1.69 1.47 1.32 1.19 1.19 1.20 1.21 1.20 1.17
1.08 1.07 0.93 0.74 0.61 0.54 0.50 0.43 0.40 0.41 0.42 0.48 0.53 0.57 0.63 0.71 0.76 0.77 0.68 0.66 0.73 0.81 0.85 0.85 0.88 0.95 1.06 1.13 1.20 1.52 1.83 1.96 1.93 1.87 1.76 1.59 1.37 1.26 1.14 1.09 1.18 1.36 1.36
0.99 0.97 0.75 0.58 0.46 0.41 0.41 0.39 0.35 0.34 0.39 0.44 0.44 0.47 0.56 0.58 0.69 0.66 0.52 0.52 0.56 0.67 0.76 0.76 0.68 0.68 0.74 0.79 0.87 1.04 1.28 1.48 1.69 1.83 1.78 1.59 1.40 1.27 1.20 1.20 1.22 1.28 1.34
0.64 0.60 0.51 0.40 0.38 0.41 0.43 0.37 0.34 0.34 0.35 0.38 0.39 0.40 0.46 0.58 0.58 0.42 0.40 0.45 0.53 0.59 0.67 0.73 0.67 0.57 0.63 0.67 0.76 0.84 0.85 0.92 1.16 1.44 1.57 1.54 1.59 1.41 1.33 1.26 1.21 1.25 1.28
0.40 0.40 0.34 0.31 0.31 0.34 0.35 0.34 0.40 0.44 0.42 0.42 0.44 0.44 0.44 0.49 0.46 0.33 0.34 0.39 0.46 0.53 0.63 0.72 0.77 0.69 0.68 0.77 0.78 0.80 0.75 0.71 0.88 0.90 1.06 1.34 1.47 1.50 1.44 1.48 1.60 1.54 1.39
0.12 0.13 0.12 0.12 0.13 0.14 0.16 0.22 0.33 0.40 0.42 0.44 0.48 0.48 0.43 0.40 0.39 0.30 0.29 0.38 0.46 0.53 0.56 0.62 0.70 0.66 0.78 0.85 0.85 0.96 0.93 0.83 0.93 0.98 1.01 1.03 1.11 1.21 1.30 1.36 1.43 1.48 1.45
0.01 0.01 0.01 0.02 0.02 0.04 0.06 0.09 0.15 0.19 0.24 0.32 0.34 0.38 0.41 0.38 0.46 0.33 0.32 0.38 0.49 0.60 0.64 0.63 0.76 0.75 0.78 0.76 0.74 0.95 0.98 0.87 0.79 0.84 0.84 0.80 0.74 0.81 0.96 1.11 1.28 1.34 1.30
0.00 0.00 0.00 0.00 0.00 0.01 0.02 0.03 0.06 0.08 0.12 0.17 0.21 0.27 0.34 0.39 0.46 0.43 0.46 0.48 0.54 0.68 0.70 0.63 0.58 0.66 0.56 0.60 0.64 0.68 0.88 0.88 0.78 0.82 0.82 0.76 0.69 0.69 0.75 0.86 1.05 1.21 1.22
0.00 0.00 0.00 0.00 0.00 0.01 0.01 0.02 0.02 0.03 0.06 0.09 0.11 0.16 0.22 0.27 0.33 0.38 0.38 0.41 0.47 0.60 0.68 0.57 0.55 0.61 0.47 0.45 0.47 0.57 0.69 0.79 0.77 0.81 0.79 0.77 0.70 0.63 0.64 0.70 0.78 0.83 0.86
0.00 0.00 0.01 0.01 0.01 0.01 0.01 0.01 0.02 0.03 0.05 0.06 0.09 0.15 0.21 0.28 0.29 0.25 0.22 0.24 0.29 0.43 0.49 0.50 0.50 0.47 0.43 0.41 0.42 0.47 0.54 0.63 0.77 0.77 0.70 0.68 0.62 0.58 0.55 0.55 0.62 0.68 0.69
0.00 0.00 0.00 0.01 0.01 0.01 0.02 0.03 0.03 0.04 0.05 0.09 0.14 0.19 0.23 0.26 0.28 0.25 0.26 0.28 0.27 0.32 0.34 0.34 0.37 0.40 0.43 0.42 0.40 0.43 0.50 0.59 0.63 0.60 0.55 0.54 0.54 0.55 0.59 0.59 0.60 0.64 0.69
0.00 0.00 0.00 0.01 0.01 0.01 0.01 0.01 0.02 0.03 0.04 0.10 0.17 0.21 0.21 0.21 0.15 0.14 0.24 0.34 0.40 0.46 0.53 0.49 0.50 0.50 0.47 0.42 0.39 0.40 0.43 0.47 0.47 0.44 0.42 0.39 0.38 0.42 0.48 0.52 0.53 0.53 0.57
0.00 0.00 0.00 0.01 0.01 0.01 0.01 0.01 0.01 0.02 0.05 0.07 0.07 0.09 0.10 0.09 0.09 0.10 0.16 0.26 0.34 0.45 0.60 0.66 0.69 0.70 0.64 0.53 0.43 0.37 0.32 0.33 0.35 0.37 0.38 0.37 0.35 0.36 0.40 0.41 0.43 0.42 0.43
0.00 0.00 0.00 0.01 0.01 0.01 0.02 0.04 0.05 0.04 0.02 0.01 0.01 0.02 0.08 0.15 0.19 0.23 0.24 0.28 0.31 0.42 0.61 0.68 0.69 0.67 0.59 0.52 0.47 0.38 0.32 0.28 0.29 0.30 0.29 0.31 0.31 0.32 0.35 0.34 0.34 0.34 0.34
0.00 0.00 0.01 0.03 0.05 0.06 0.06 0.09 0.14 0.17 0.15 0.07 0.02 0.01 0.04 0.12 0.16 0.18 0.25 0.37 0.39 0.45 0.53 0.54 0.54 0.42 0.33 0.30 0.26 0.22 0.18 0.18 0.20 0.19 0.18 0.19 0.21 0.22 0.23 0.26 0.29 0.31 0.32
0.00 0.01 0.03 0.08 0.10 0.08 0.09 0.13 0.15 0.11 0.09 0.08 0.05 0.02 0.02 0.04 0.06 0.08 0.16 0.34 0.36 0.30 0.25 0.21 0.19 0.16 0.12 0.11 0.10 0.10 0.09 0.08 0.08 0.08 0.07 0.08 0.10 0.12 0.14 0.17 0.21 0.25 0.28
0.00 0.00 0.02 0.07 0.10 0.08 0.08 0.09 0.08 0.06 0.04 0.05 0.05 0.05 0.05 0.06 0.08 0.08 0.09 0.14 0.13 0.09 0.07 0.07 0.07 0.05 0.05 0.05 0.05 0.04 0.04 0.04 0.05 0.05 0.05 0.05 0.06 0.08 0.10 0.14 0.18 0.20 0.22
0.00 0.01 0.01 0.04 0.06 0.05 0.05 0.06 0.05 0.05 0.05 0.05 0.04 0.03 0.05 0.09 0.09 0.08 0.07 0.06 0.05 0.04 0.04 0.06 0.04 0.03 0.03 0.04 0.04 0.04 0.04 0.05 0.04 0.04 0.04 0.05 0.06 0.08 0.10 0.14 0.19 0.22 0.23
0.01 0.02 0.03 0.05 0.06 0.04 0.05 0.07 0.09 0.08 0.06 0.07 0.06 0.05 0.06 0.09 0.09 0.07 0.06 0.06 0.05 0.05 0.06 0.08 0.08 0.06 0.05 0.05 0.05 0.05 0.05 0.05 0.05 0.05 0.05 0.05 0.05 0.06 0.08 0.12 0.16 0.20 0.25
0.02 0.02 0.04 0.06 0.06 0.05 0.06 0.08 0.10 0.09 0.08 0.09 0.09 0.09 0.08 0.10 0.09 0.09 0.09 0.09 0.09 0.09 0.08 0.09 0.11 0.10 0.08 0.07 0.08 0.08 0.08 0.07 0.07 0.07 0.07 0.07 0.07 0.08 0.09 0.10 0.11 0.14 0.18
0.03 0.04 0.05 0.07 0.07 0.06 0.07 0.09 0.10 0.09 0.09 0.10 0.11 0.11 0.11 0.10 0.08 0.07 0.08 0.09 0.10 0.11 0.09 0.08 0.08 0.08 0.07 0.08 0.09 0.10 0.13 0.13 0.09 0.08 0.08 0.09 0.10 0.10 0.13 0.15 0.19 0.21 0.22
0.04 0.05 0.05 0.06 0.07 0.06 0.07 0.08 0.10 0.10 0.10 0.11 0.11 0.10 0.10 0.10 0.08 0.06 0.07 0.07 0.08 0.09 0.08 0.08 0.08 0.07 0.06 0.06 0.08 0.09 0.15 0.17 0.14 0.12 0.10 0.09 0.11 0.14 0.18 0.25 0.31 0.33 0.34
0.04 0.05 0.05 0.06 0.07 0.06 0.06 0.07 0.09 0.10 0.11 0.11 0.11 0.11 0.12 0.12 0.10 0.08 0.07 0.06 0.07 0.07 0.05 0.06 0.07 0.06 0.06 0.07 0.08 0.12 0.16 0.15 0.14 0.13 0.09 0.08 0.10 0.13 0.15 0.17 0.21 0.26 0.30

GEFSGL_prec_meanprecacc_126.txt.gz
Total_Precipitation_Accumulation
0.78 0.78 0.79 0.76 0.74 0.74 0.74 0.71 0.73 0.79 0.79 0.82 0.96 1.04 1.12 1.19 1.36 1.62 1.80 1.80 1.72 1.71 1.70 1.77 1.91 2.00 2.23 2.20 2.11 2.00 1.84 1.65 1.48 1.31 1.10 0.90 0.97 1.03 1.05 1.00 0.92 0.87 0.73
0.88 0.87 0.78 0.70 0.67 0.67 0.64 0.57 0.57 0.55 0.55 0.66 0.78 0.84 0.89 0.94 1.12 1.40 1.60 1.64 1.59 1.49 1.48 1.58 1.79 1.96 2.17 2.27 2.21 2.07 1.94 1.80 1.68 1.58 1.40 1.14 1.02 1.06 1.15 1.18 1.10 1.04 0.97
0.92 0.82 0.74 0.68 0.59 0.55 0.49 0.45 0.51 0.52 0.57 0.66 0.76 0.81 0.84 0.90 0.93 1.03 1.19 1.31 1.30 1.24 1.27 1.31 1.37 1.54 1.79 1.98 2.03 2.05 2.07 2.03 1.96 1.80 1.58 1.40 1.23 1.11 1.15 1.17 1.12 1.17 1.10
1.06 0.96 0.85 0.74 0.62 0.57 0.50 0.45 0.43 0.45 0.51 0.58 0.62 0.70 0.79 0.84 0.84 0.84 0.88 0.97 0.98 1.01 1.06 1.13 1.17 1.19 1.36 1.53 1.65 1.86 2.07 2.07 2.05 1.96 1.74 1.52 1.36 1.23 1.25 1.27 1.27 1.25 1.21
1.08 1.07 0.93 0.74 0.61 0.55 0.50 0.43 0.41 0.41 0.42 0.48 0.54 0.57 0.64 0.71 0.76 0.78 0.68 0.67 0.74 0.82 0.87 0.87 0.90 0.97 1.08 1.17 1.23 1.55 1.87 2.01 1.97 1.92 1.80 1.65 1.43 1.30 1.18 1.15 1.26 1.44 1.43
0.99 0.97 0.75 0.58 0.47 0.42 0.41 0.39 0.35 0.34 0.39 0.44 0.45 0.47 0.57 0.58 0.69 0.67 0.52 0.52 0.56 0.67 0.77 0.78 0.69 0.70 0.75 0.82 0.89 1.06 1.31 1.52 1.74 1.88 1.83 1.64 1.46 1.33 1.25 1.25 1.27 1.34 1.41
0.64 0.60 0.51 0.40 0.38 0.41 0.43 0.37 0.35 0.34 0.35 0.38 0.39 0.40 0.46 0.58 0.58 0.42 0.41 0.45 0.53 0.59 0.67 0.75 0.69 0.59 0.65 0.70 0.80 0.87 0.89 0.95 1.20 1.49 1.61 1.58 1.63 1.47 1.40 1.31 1.25 1.29 1.32
0.40 0.40 0.34 0.31 0.32 0.34 0.36 0.34 0.40 0.44 0.42 0.42 0.44 0.44 0.44 0.49 0.46 0.33 0.34 0.39 0.46 0.53 0.63 0.73 0.79 0.71 0.70 0.80 0.81 0.83 0.79 0.74 0.91 0.93 1.09 1.36 1.49 1.54 1.49 1.53 1.65 1.58 1.42
0.12 0.13 0.12 0.12 0.13 0.15 0.16 0.22 0.33 0.40 0.42 0.45 0.48 0.48 0.43 0.40 0.39 0.30 0.29 0.38 0.46 0.53 0.56 0.62 0.70 0.67 0.79 0.87 0.87 0.98 0.96 0.85 0.96 1.00 1.04 1.05 1.13 1.23 1.33 1.39 1.46 1.53 1.50
0.01 0.01 0.01 0.02 0.02 0.04 0.06 0.09 0.16 0.19 0.25 0.32 0.34 0.38 0.41 0.39 0.46 0.33 0.32 0.38 0.49 0.60 0.64 0.63 0.76 0.75 0.78 0.77 0.75 0.96 0.99 0.89 0.81 0.86 0.86 0.82 0.75 0.82 0.98 1.14 1.32 1.38 1.35
0.00 0.00 0.00 0.00 0.00 0.01 0.02 0.04 0.06 0.08 0.13 0.17 0.21 0.27 0.34 0.39 0.47 0.43 0.46 0.48 0.54 0.68 0.70 0.63 0.58 0.66 0.56 0.60 0.64 0.68 0.89 0.88 0.79 0.83 0.83 0.77 0.70 0.70 0.76 0.87 1.07 1.24 1.26
0.00 0.00 0.00 0.00 0.00 0.01 0.01 0.02 0.02 0.03 0.06 0.09 0.12 0.16 0.22 0.27 0.33 0.38 0.39 0.42 0.47 0.60 0.68 0.57 0.55 0.61 0.47 0.45 0.47 0.57 0.69 0.79 0.77 0.81 0.80 0.78 0.71 0.63 0.64 0.71 0.79 0.84 0.87
0.00 0.00 0.01 0.01 0.01 0.01 0.02 0.02 0.02 0.03 0.05 0.07 0.10 0.16 0.22 0.28 0.30 0.25 0.23 0.24 0.29 0.43 0.49 0.50 0.50 0.47 0.43 0.41 0.42 0.47 0.54 0.63 0.77 0.77 0.71 0.69 0.62 0.59 0.56 0.56 0.62 0.68 0.70
0.00 0.00 0.00 0.01 0.01 0.01 0.02 0.03 0.04 0.04 0.06 0.09 0.15 0.19 0.23 0.26 0.28 0.25 0.27 0.28 0.27 0.32 0.34 0.34 0.37 0.40 0.43 0.42 0.40 0.43 0.50 0.59 0.63 0.60 0.55 0.54 0.55 0.55 0.59 0.59 0.60 0.64 0.69
0.00 0.00 0.00 0.01 0.01 0.01 0.01 0.01 0.02 0.03 0.05 0.11 0.18 0.22 0.22 0.21 0.16 0.15 0.25 0.35 0.41 0.47 0.53 0.49 0.50 0.50 0.47 0.42 0.39 0.40 0.43 0.47 0.47 0.44 0.42 0.39 0.38 0.42 0.48 0.52 0.54 0.53 0.57
0.00 0.00 0.00 0.01 0.01 0.01 0.01 0.01 0.01 0.02 0.06 0.08 0.08 0.10 0.11 0.10 0.10 0.11 0.17 0.27 0.35 0.46 0.61 0.66 0.69 0.70 0.64 0.53 0.43 0.37 0.32 0.33 0.35 0.37 0.38 0.37 0.35 0.36 0.40 0.42 0.44 0.42 0.43
0.00 0.00 0.00 0.01 0.01 0.01 0.02 0.04 0.06 0.05 0.03 0.02 0.02 0.03 0.09 0.16 0.20 0.24 0.26 0.29 0.32 0.44 0.62 0.69 0.70 0.67 0.59 0.52 0.47 0.38 0.32 0.28 0.29 0.30 0.29 0.31 0.31 0.32 0.35 0.35 0.34 0.34 0.34
0.00 0.00 0.01 0.03 0.05 0.06 0.06 0.10 0.14 0.19 0.16 0.09 0.04 0.03 0.05 0.13 0.17 0.20 0.27 0.39 0.41 0.47 0.54 0.55 0.54 0.42 0.33 0.30 0.26 0.22 0.18 0.18 0.20 0.19 0.18 0.19 0.22 0.22 0.23 0.26 0.29 0.31 0.32
0.00 0.01 0.03 0.08 0.10 0.08 0.09 0.14 0.16 0.12 0.10 0.10 0.07 0.05 0.04 0.07 0.09 0.11 0.20 0.37 0.39 0.32 0.27 0.22 0.19 0.16 0.12 0.11 0.11 0.10 0.09 0.08 0.08 0.08 0.07 0.08 0.10 0.12 0.14 0.17 0.21 0.25 0.28
0.01 0.01 0.03 0.08 0.10 0.09 0.08 0.09 0.09 0.07 0.05 0.07 0.08 0.09 0.10 0.11 0.13 0.13 0.14 0.18 0.17 0.12 0.10 0.10 0.08 0.06 0.05 0.05 0.05 0.05 0.05 0.05 0.05 0.05 0.05 0.05 0.06 0.08 0.10 0.14 0.18 0.20 0.22
0.01 0.02 0.02 0.05 0.07 0.06 0.06 0.06 0.06 0.06 0.07 0.08 0.08 0.08 0.11 0.16 0.16 0.15 0.14 0.12 0.10 0.09 0.08 0.09 0.07 0.05 0.04 0.04 0.04 0.05 0.05 0.05 0.04 0.04 0.04 0.05 0.06 0.08 0.10 0.14 0.19 0.22 0.23
0.02 0.03 0.05 0.06 0.07 0.05 0.06 0.08 0.10 0.09 0.08 0.10 0.10 0.11 0.14 0.18 0.18 0.15 0.14 0.13 0.12 0.11 0.11 0.12 0.12 0.09 0.08 0.06 0.06 0.05 0.06 0.06 0.05 0.05 0.05 0.05 0.05 0.06 0.08 0.12 0.16 0.20 0.25
0.03 0.03 0.05 0.07 0.08 0.06 0.07 0.09 0.11 0.11 0.10 0.11 0.12 0.14 0.15 0.18 0.19 0.19 0.18 0.17 0.16 0.16 0.15 0.15 0.16 0.14 0.11 0.10 0.09 0.09 0.08 0.08 0.07 0.07 0.07 0.07 0.07 0.08 0.09 0.10 0.11 0.14 0.18
0.04 0.05 0.07 0.09 0.09 0.08 0.09 0.11 0.11 0.10 0.11 0.13 0.14 0.15 0.16 0.17 0.17 0.16 0.18 0.18 0.18 0.19 0.17 0.16 0.15 0.13 0.12 0.12 0.12 0.11 0.14 0.14 0.10 0.08 0.08 0.09 0.10 0.10 0.13 0.15 0.19 0.21 0.22
0.06 0.07 0.07 0.08 0.09 0.08 0.08 0.10 0.11 0.12 0.12 0.13 0.14 0.14 0.16 0.17 0.16 0.16 0.17 0.17 0.18 0.19 0.17 0.16 0.16 0.15 0.13 0.12 0.12 0.13 0.17 0.18 0.15 0.12 0.10 0.09 0.11 0.14 0.18 0.25 0.31 0.33 0.34
0.06 0.07 0.08 0.08 0.09 0.08 0.09 0.10 0.11 0.12 0.13 0.14 0.14 0.15 0.16 0.18 0.17 0.17 0.17 0.16 0.17 0.16 0.15 0.15 0.15 0.13 0.13 0.13 0.14 0.18 0.19 0.17 0.15 0.14 0.10 0.08 0.10 0.13 0.15 0.17 0.21 0.26 0.30

GEFSGL_prec_meanprecacc_132.txt.gz
Total_Precipitation_Accumulation
0.78 0.78 0.79 0.76 0.75 0.74 0.74 0.71 0.73 0.79 0.80 0.83 0.99 1.04 1.12 1.21 1.38 1.64 1.82 1.83 1.76 1.76 1.74 1.82 1.98 2.07 2.29 2.27 2.18 2.06 1.91 1.72 1.57 1.42 1.20 0.99 1.04 1.08 1.11 1.10 1.01 0.94 0.78
0.88 0.87 0.78 0.70 0.67 0.67 0.64 0.57 0.57 0.56 0.55 0.67 0.81 0.85 0.89 0.94 1.13 1.43 1.62 1.66 1.63 1.54 1.52 1.62 1.84 2.01 2.22 2.33 2.29 2.14 2.02 1.87 1.75 1.67 1.49 1.23 1.12 1.15 1.21 1.25 1.19 1.11 1.05
0.92 0.82 0.74 0.68 0.59 0.55 0.49 0.45 0.51 0.52 0.58 0.67 0.77 0.82 0.85 0.91 0.94 1.05 1.21 1.32 1.31 1.26 1.29 1.34 1.40 1.58 1.86 2.05 2.10 2.11 2.13 2.09 2.03 1.87 1.67 1.48 1.32 1.22 1.25 1.25 1.19 1.25 1.17
1.06 0.96 0.85 0.74 0.62 0.57 0.50 0.45 0.44 0.46 0.53 0.59 0.65 0.72 0.80 0.85 0.85 0.86 0.89 0.97 0.99 1.03 1.08 1.15 1.20 1.23 1.42 1.60 1.71 1.93 2.14 2.14 2.13 2.04 1.82 1.59 1.43 1.32 1.35 1.36 1.34 1.32 1.27
1.08 1.07 0.93 0.74 0.61 0.55 0.50 0.43 0.41 0.41 0.43 0.49 0.56 0.60 0.65 0.72 0.77 0.79 0.69 0.68 0.75 0.84 0.89 0.89 0.91 0.99 1.10 1.19 1.26 1.60 1.93 2.08 2.05 2.00 1.87 1.72 1.48 1.36 1.25 1.21 1.33 1.51 1.50
0.99 0.97 0.75 0.58 0.47 0.42 0.41 0.40 0.35 0.35 0.40 0.45 0.46 0.49 0.60 0.61 0.70 0.67 0.53 0.53 0.58 0.69 0.79 0.79 0.70 0.70 0.76 0.82 0.90 1.07 1.34 1.56 1.81 1.95 1.89 1.70 1.51 1.38 1.31 1.29 1.31 1.39 1.47
0.64 0.60 0.51 0.40 0.38 0.41 0.43 0.37 0.35 0.34 0.36 0.39 0.40 0.42 0.48 0.60 0.60 0.43 0.41 0.46 0.54 0.60 0.68 0.76 0.69 0.60 0.67 0.72 0.81 0.88 0.90 0.96 1.22 1.55 1.67 1.64 1.70 1.55 1.47 1.37 1.30 1.34 1.37
0.40 0.40 0.34 0.31 0.32 0.34 0.36 0.34 0.40 0.44 0.42 0.43 0.46 0.47 0.47 0.52 0.48 0.34 0.35 0.40 0.46 0.53 0.63 0.73 0.79 0.71 0.71 0.81 0.82 0.85 0.81 0.76 0.93 0.96 1.13 1.41 1.56 1.63 1.59 1.61 1.72 1.64 1.47
0.12 0.13 0.12 0.12 0.13 0.15 0.16 0.22 0.33 0.40 0.42 0.45 0.49 0.50 0.47 0.44 0.43 0.32 0.31 0.39 0.46 0.53 0.56 0.62 0.70 0.68 0.81 0.89 0.88 1.00 0.99 0.87 0.98 1.03 1.07 1.09 1.18 1.29 1.41 1.47 1.54 1.59 1.56
0.01 0.01 0.01 0.02 0.02 0.04 0.06 0.09 0.16 0.20 0.25 0.33 0.35 0.39 0.43 0.42 0.51 0.37 0.35 0.39 0.50 0.60 0.64 0.63 0.76 0.76 0.81 0.80 0.78 0.99 1.01 0.92 0.83 0.88 0.88 0.84 0.78 0.85 1.03 1.20 1.38 1.44 1.41
0.00 0.00 0.00 0.00 0.00 0.01 0.02 0.04 0.07 0.09 0.13 0.17 0.22 0.28 0.36 0.42 0.51 0.48 0.50 0.50 0.55 0.69 0.71 0.65 0.59 0.67 0.57 0.63 0.67 0.72 0.92 0.91 0.81 0.87 0.88 0.81 0.74 0.72 0.78 0.91 1.12 1.29 1.32
0.00 0.00 0.00 0.00 0.00 0.01 0.01 0.02 0.02 0.04 0.07 0.10 0.12 0.17 0.23 0.29 0.37 0.43 0.43 0.45 0.50 0.62 0.71 0.60 0.57 0.63 0.48 0.46 0.49 0.59 0.72 0.81 0.79 0.84 0.85 0.83 0.75 0.66 0.66 0.74 0.82 0.88 0.92
0.00 0.00 0.01 0.01 0.01 0.01 0.02 0.02 0.02 0.04 0.06 0.08 0.11 0.17 0.23 0.30 0.33 0.29 0.28 0.29 0.34 0.48 0.52 0.54 0.53 0.50 0.45 0.42 0.42 0.49 0.55 0.64 0.78 0.80 0.74 0.72 0.64 0.60 0.58 0.59 0.65 0.71 0.74
0.00 0.00 0.00 0.01 0.01 0.01 0.02 0.03 0.04 0.04 0.07 0.10 0.16 0.21 0.25 0.29 0.32 0.31 0.33 0.35 0.33 0.38 0.39 0.39 0.41 0.43 0.46 0.44 0.41 0.44 0.51 0.60 0.65 0.62 0.58 0.56 0.56 0.57 0.61 0.60 0.62 0.66 0.71
0.00 0.00 0.00 0.01 0.01 0.01 0.01 0.01 0.02 0.03 0.05 0.12 0.19 0.24 0.25 0.24 0.20 0.22 0.34 0.43 0.48 0.54 0.60 0.55 0.55 0.55 0.50 0.44 0.41 0.41 0.44 0.48 0.47 0.45 0.44 0.41 0.40 0.44 0.50 0.53 0.55 0.54 0.58
0.00 0.00 0.00 0.01 0.01 0.02 0.01 0.01 0.01 0.02 0.06 0.08 0.09 0.11 0.13 0.13 0.13 0.16 0.24 0.34 0.42 0.52 0.68 0.73 0.76 0.77 0.69 0.58 0.47 0.39 0.34 0.34 0.36 0.38 0.39 0.38 0.36 0.37 0.42 0.43 0.45 0.43 0.44
0.00 0.00 0.00 0.01 0.01 0.01 0.02 0.04 0.06 0.05 0.03 0.03 0.03 0.04 0.11 0.18 0.23 0.27 0.30 0.34 0.37 0.49 0.68 0.75 0.76 0.73 0.66 0.59 0.52 0.41 0.33 0.30 0.30 0.30 0.30 0.32 0.32 0.34 0.37 0.37 0.35 0.35 0.35
0.00 0.00 0.01 0.03 0.05 0.06 0.07 0.10 0.15 0.19 0.16 0.09 0.04 0.03 0.06 0.15 0.19 0.23 0.31 0.43 0.44 0.51 0.60 0.62 0.61 0.48 0.40 0.37 0.33 0.27 0.22 0.20 0.22 0.21 0.19 0.20 0.23 0.24 0.25 0.28 0.30 0.32 0.33
0.00 0.01 0.03 0.08 0.10 0.09 0.10 0.14 0.16 0.12 0.10 0.10 0.08 0.06 0.06 0.08 0.11 0.14 0.24 0.42 0.42 0.36 0.32 0.29 0.27 0.25 0.20 0.20 0.19 0.17 0.14 0.12 0.11 0.11 0.09 0.10 0.11 0.14 0.16 0.19 0.23 0.26 0.29
0.01 0.01 0.03 0.08 0.11 0.09 0.09 0.10 0.09 0.07 0.06 0.08 0.09 0.10 0.12 0.13 0.15 0.16 0.19 0.24 0.22 0.17 0.15 0.16 0.16 0.16 0.16 0.16 0.16 0.15 0.13 0.10 0.09 0.09 0.08 0.08 0.09 0.09 0.11 0.15 0.19 0.22 0.24
0.01 0.02 0.03 0.05 0.08 0.07 0.07 0.07 0.07 0.07 0.08 0.09 0.09 0.09 0.13 0.18 0.19 0.19 0.20 0.20 0.19 0.18 0.17 0.18 0.16 0.15 0.16 0.17 0.18 0.18 0.16 0.13 0.11 0.10 0.09 0.09 0.10 0.10 0.12 0.16 0.20 0.23 0.25
0.02 0.03 0.05 0.07 0.07 0.06 0.06 0.09 0.11 0.10 0.09 0.11 0.11 0.12 0.15 0.19 0.20 0.19 0.19 0.19 0.19 0.19 0.21 0.24 0.24 0.22 0.20 0.20 0.20 0.19 0.17 0.16 0.14 0.12 0.11 0.10 0.10 0.10 0.11 0.13 0.17 0.21 0.26
0.03 0.04 0.05 0.08 0.08 0.07 0.08 0.10 0.12 0.12 0.11 0.12 0.14 0.15 0.16 0.20 0.21 0.22 0.22 0.22 0.22 0.24 0.23 0.25 0.27 0.26 0.24 0.22 0.23 0.21 0.19 0.17 0.15 0.15 0.15 0.14 0.13 0.13 0.13 0.12 0.13 0.16 0.20
0.05 0.06 0.07 0.09 0.10 0.09 0.10 0.12 0.13 0.12 0.13 0.14 0.15 0.16 0.18 0.19 0.19 0.19 0.21 0.23 0.25 0.26 0.26 0.26 0.26 0.24 0.23 0.24 0.23 0.22 0.24 0.23 0.18 0.16 0.16 0.17 0.18 0.17 0.18 0.19 0.21 0.23 0.24
0.07 0.07 0.08 0.09 0.09 0.09 0.09 0.11 0.13 0.13 0.14 0.15 0.15 0.15 0.18 0.19 0.19 0.19 0.20 0.21 0.23 0.25 0.25 0.26 0.28 0.26 0.24 0.23 0.23 0.23 0.28 0.29 0.25 0.21 0.18 0.17 0.19 0.21 0.24 0.30 0.34 0.36 0.36
0.07 0.07 0.08 0.09 0.10 0.10 0.11 0.12 0.13 0.14 0.15 0.16 0.16 0.17 0.19 0.20 0.20 0.20 0.20 0.20 0.22 0.22 0.22 0.24 0.26 0.25 0.24 0.24 0.24 0.29 0.31 0.27 0.24 0.23 0.19 0.17 0.17 0.19 0.20 0.21 0.25 0.29 0.32

GEFSGL_prec_meanprecacc_138.txt.gz
Total_Precipitation_Accumulation
0.78 0.78 0.79 0.76 0.75 0.74 0.74 0.72 0.73 0.79 0.80 0.83 1.00 1.06 1.14 1.22 1.39 1.65 1.83 1.83 1.76 1.76 1.75 1.83 1.99 2.07 2.30 2.28 2.19 2.08 1.93 1.73 1.58 1.44 1.23 1.04 1.09 1.13 1.15 1.15 1.05 1.00 0.85
0.88 0.87 0.78 0.70 0.67 0.67 0.64 0.57 0.58 0.56 0.55 0.68 0.81 0.86 0.90 0.96 1.14 1.44 1.63 1.67 1.63 1.54 1.52 1.63 1.84 2.01 2.23 2.34 2.31 2.17 2.05 1.89 1.77 1.70 1.53 1.29 1.16 1.19 1.26 1.32 1.26 1.15 1.09
0.92 0.82 0.74 0.68 0.59 0.55 0.49 0.45 0.51 0.53 0.58 0.68 0.78 0.84 0.86 0.92 0.96 1.07 1.23 1.34 1.32 1.26 1.29 1.35 1.41 1.58 1.86 2.06 2.12 2.14 2.16 2.12 2.06 1.90 1.71 1.54 1.37 1.26 1.32 1.32 1.27 1.31 1.22
1.06 0.96 0.85 0.74 0.62 0.57 0.50 0.45 0.44 0.46 0.53 0.60 0.65 0.73 0.81 0.88 0.89 0.91 0.94 1.00 1.00 1.03 1.09 1.16 1.20 1.23 1.43 1.61 1.74 1.95 2.17 2.18 2.15 2.07 1.86 1.65 1.49 1.37 1.40 1.41 1.41 1.39 1.32
1.08 1.07 0.93 0.74 0.61 0.55 0.50 0.43 0.41 0.41 0.43 0.49 0.56 0.60 0.67 0.76 0.85 0.87 0.75 0.71 0.77 0.86 0.91 0.90 0.92 0.99 1.11 1.20 1.28 1.62 1.96 2.13 2.10 2.04 1.91 1.76 1.54 1.43 1.28 1.25 1.39 1.57 1.57
0.99 0.97 0.75 0.58 0.47 0.42 0.41 0.40 0.35 0.35 0.40 0.45 0.46 0.49 0.61 0.66 0.79 0.76 0.59 0.58 0.61 0.71 0.81 0.80 0.71 0.71 0.77 0.83 0.90 1.08 1.35 1.59 1.84 1.99 1.92 1.73 1.55 1.43 1.35 1.35 1.37 1.44 1.51
0.64 0.60 0.51 0.40 0.38 0.41 0.43 0.37 0.35 0.34 0.36 0.39 0.40 0.42 0.48 0.62 0.65 0.51 0.48 0.51 0.58 0.63 0.69 0.76 0.69 0.60 0.67 0.72 0.81 0.89 0.91 0.98 1.24 1.57 1.70 1.66 1.73 1.58 1.51 1.41 1.35 1.39 1.41
0.40 0.40 0.34 0.31 0.32 0.34 0.36 0.34 0.40 0.44 0.42 0.43 0.46 0.47 0.48 0.53 0.51 0.40 0.43 0.45 0.50 0.56 0.64 0.74 0.79 0.72 0.71 0.82 0.82 0.85 0.82 0.77 0.96 0.98 1.15 1.44 1.60 1.66 1.61 1.66 1.77 1.69 1.53
0.12 0.13 0.12 0.12 0.13 0.15 0.16 0.22 0.33 0.40 0.42 0.45 0.49 0.50 0.47 0.45 0.45 0.37 0.38 0.46 0.51 0.55 0.57 0.63 0.71 0.69 0.82 0.90 0.89 1.00 0.99 0.88 1.00 1.05 1.08 1.12 1.22 1.34 1.47 1.53 1.61 1.65 1.60
0.01 0.01 0.01 0.02 0.02 0.04 0.06 0.09 0.16 0.20 0.25 0.33 0.35 0.39 0.43 0.43 0.52 0.40 0.41 0.46 0.55 0.64 0.66 0.64 0.77 0.77 0.82 0.81 0.79 1.01 1.03 0.93 0.84 0.89 0.90 0.87 0.82 0.91 1.09 1.25 1.45 1.52 1.48
0.00 0.00 0.00 0.00 0.00 0.01 0.02 0.04 0.07 0.09 0.13 0.17 0.22 0.28 0.36 0.42 0.52 0.50 0.54 0.56 0.62 0.74 0.74 0.66 0.60 0.69 0.59 0.64 0.69 0.73 0.94 0.94 0.84 0.89 0.90 0.84 0.77 0.76 0.83 0.95 1.17 1.35 1.39
0.00 0.00 0.00 0.00 0.00 0.01 0.01 0.02 0.02 0.04 0.07 0.10 0.12 0.17 0.24 0.30 0.38 0.44 0.46 0.51 0.59 0.69 0.74 0.62 0.59 0.65 0.50 0.48 0.51 0.61 0.74 0.86 0.84 0.88 0.88 0.86 0.77 0.68 0.70 0.77 0.86 0.93 0.97
0.00 0.00 0.01 0.01 0.01 0.01 0.02 0.02 0.02 0.04 0.06 0.08 0.11 0.18 0.24 0.31 0.34 0.31 0.30 0.33 0.41 0.53 0.55 0.57 0.56 0.52 0.48 0.44 0.45 0.51 0.58 0.68 0.83 0.85 0.78 0.76 0.69 0.64 0.61 0.63 0.70 0.76 0.78
0.00 0.00 0.00 0.01 0.01 0.01 0.02 0.03 0.04 0.05 0.07 0.10 0.16 0.22 0.26 0.30 0.33 0.32 0.34 0.37 0.39 0.42 0.42 0.41 0.43 0.45 0.49 0.47 0.44 0.47 0.55 0.65 0.70 0.68 0.63 0.61 0.63 0.64 0.66 0.65 0.67 0.71 0.75
0.00 0.00 0.00 0.01 0.01 0.01 0.01 0.01 0.03 0.04 0.06 0.12 0.19 0.25 0.25 0.25 0.21 0.23 0.34 0.45 0.52 0.58 0.63 0.57 0.57 0.57 0.53 0.48 0.45 0.45 0.49 0.54 0.54 0.52 0.50 0.47 0.46 0.50 0.55 0.58 0.60 0.60 0.62
0.00 0.00 0.00 0.01 0.01 0.02 0.02 0.01 0.01 0.03 0.06 0.08 0.09 0.12 0.13 0.13 0.13 0.17 0.24 0.35 0.44 0.56 0.72 0.75 0.78 0.79 0.73 0.62 0.52 0.44 0.40 0.41 0.43 0.45 0.46 0.45 0.42 0.43 0.48 0.49 0.50 0.48 0.48
0.00 0.00 0.00 0.01 0.01 0.01 0.02 0.04 0.06 0.05 0.03 0.03 0.03 0.04 0.11 0.19 0.23 0.28 0.31 0.35 0.38 0.52 0.72 0.78 0.78 0.75 0.69 0.63 0.58 0.49 0.41 0.37 0.38 0.38 0.37 0.40 0.40 0.40 0.44 0.44 0.42 0.40 0.39
0.00 0.00 0.01 0.03 0.05 0.06 0.07 0.10 0.15 0.19 0.17 0.09 0.04 0.04 0.07 0.15 0.19 0.23 0.31 0.44 0.46 0.53 0.63 0.64 0.63 0.51 0.43 0.41 0.38 0.35 0.31 0.29 0.29 0.29 0.27 0.29 0.32 0.32 0.34 0.36 0.38 0.38 0.37
0.00 0.01 0.03 0.08 0.10 0.09 0.10 0.14 0.16 0.13 0.11 0.10 0.08 0.06 0.06 0.09 0.12 0.14 0.24 0.43 0.44 0.37 0.34 0.31 0.30 0.27 0.24 0.24 0.24 0.24 0.23 0.21 0.20 0.19 0.18 0.18 0.21 0.23 0.25 0.29 0.32 0.34 0.34
0.01 0.01 0.03 0.08 0.11 0.09 0.09 0.10 0.10 0.08 0.06 0.08 0.10 0.11 0.12 0.13 0.15 0.17 0.20 0.24 0.23 0.19 0.17 0.18 0.19 0.19 0.19 0.20 0.21 0.21 0.21 0.20 0.18 0.18 0.16 0.16 0.17 0.19 0.21 0.26 0.29 0.30 0.29
0.01 0.02 0.03 0.05 0.08 0.07 0.07 0.07 0.07 0.08 0.08 0.09 0.10 0.10 0.14 0.19 0.20 0.19 0.20 0.21 0.20 0.19 0.19 0.20 0.19 0.18 0.20 0.22 0.24 0.25 0.24 0.22 0.20 0.19 0.18 0.18 0.19 0.19 0.22 0.27 0.30 0.31 0.30
0.02 0.03 0.05 0.07 0.07 0.06 0.07 0.09 0.12 0.11 0.10 0.12 0.12 0.13 0.16 0.20 0.21 0.20 0.19 0.20 0.20 0.20 0.23 0.26 0.26 0.24 0.24 0.26 0.29 0.28 0.27 0.26 0.24 0.22 0.20 0.20 0.20 0.20 0.21 0.25 0.27 0.30 0.31
0.03 0.04 0.05 0.08 0.08 0.07 0.08 0.11 0.13 0.13 0.12 0.13 0.15 0.16 0.18 0.21 0.22 0.23 0.23 0.23 0.23 0.24 0.24 0.26 0.29 0.28 0.26 0.27 0.31 0.33 0.31 0.29 0.28 0.27 0.26 0.25 0.24 0.23 0.23 0.22 0.22 0.24 0.26
0.05 0.06 0.07 0.09 0.10 0.09 0.11 0.12 0.13 0.13 0.14 0.15 0.16 0.18 0.19 0.21 0.20 0.20 0.22 0.24 0.25 0.27 0.26 0.26 0.27 0.26 0.26 0.28 0.30 0.33 0.35 0.33 0.29 0.27 0.26 0.28 0.29 0.29 0.29 0.28 0.30 0.30 0.30
0.07 0.07 0.08 0.09 0.10 0.09 0.10 0.11 0.14 0.14 0.15 0.16 0.17 0.17 0.19 0.20 0.20 0.20 0.21 0.22 0.24 0.26 0.25 0.27 0.29 0.28 0.27 0.27 0.29 0.32 0.39 0.39 0.35 0.32 0.28 0.27 0.29 0.32 0.35 0.39 0.42 0.43 0.42
0.07 0.07 0.08 0.10 0.11 0.10 0.11 0.12 0.14 0.15 0.16 0.17 0.17 0.18 0.20 0.22 0.21 0.21 0.21 0.21 0.22 0.23 0.22 0.24 0.27 0.26 0.26 0.28 0.30 0.36 0.41 0.38 0.35 0.34 0.30 0.27 0.28 0.29 0.30 0.31 0.32 0.35 0.38

GEFSGL_prec_meanprecacc_144.txt.gz
Total_Precipitation_Accumulation
0.78 0.78 0.79 0.77 0.75 0.74 0.74 0.72 0.73 0.79 0.80 0.83 1.00 1.06 1.14 1.22 1.39 1.65 1.83 1.84 1.76 1.77 1.76 1.84 1.99 2.07 2.30 2.28 2.19 2.08 1.93 1.74 1.58 1.44 1.24 1.05 1.11 1.16 1.18 1.18 1.10 1.03 0.88
0.88 0.87 0.79 0.70 0.67 0.67 0.64 0.57 0.58 0.56 0.55 0.68 0.81 0.86 0.90 0.96 1.14 1.44 1.63 1.67 1.64 1.55 1.54 1.64 1.85 2.02 2.23 2.34 2.31 2.17 2.05 1.90 1.78 1.70 1.53 1.29 1.18 1.22 1.31 1.35 1.29 1.20 1.12
0.92 0.82 0.74 0.68 0.59 0.55 0.49 0.45 0.51 0.53 0.58 0.68 0.78 0.84 0.86 0.92 0.96 1.07 1.23 1.35 1.34 1.28 1.31 1.36 1.42 1.59 1.86 2.06 2.12 2.14 2.17 2.13 2.07 1.91 1.71 1.55 1.38 1.28 1.35 1.37 1.30 1.34 1.24
1.06 0.96 0.85 0.74 0.62 0.57 0.50 0.45 0.44 0.46 0.53 0.60 0.65 0.73 0.81 0.88 0.89 0.91 0.94 1.01 1.02 1.06 1.12 1.18 1.21 1.24 1.43 1.62 1.74 1.95 2.18 2.19 2.16 2.07 1.87 1.66 1.52 1.40 1.45 1.46 1.45 1.42 1.35
1.08 1.07 0.93 0.74 0.61 0.55 0.50 0.43 0.41 0.41 0.43 0.49 0.56 0.60 0.67 0.76 0.85 0.88 0.76 0.73 0.80 0.89 0.93 0.92 0.93 1.00 1.12 1.21 1.28 1.63 1.97 2.14 2.11 2.05 1.92 1.78 1.56 1.45 1.32 1.30 1.44 1.61 1.61
0.99 0.97 0.75 0.58 0.47 0.42 0.41 0.40 0.35 0.35 0.40 0.45 0.46 0.49 0.61 0.66 0.79 0.77 0.60 0.59 0.63 0.73 0.82 0.82 0.72 0.72 0.77 0.84 0.91 1.09 1.36 1.59 1.85 2.00 1.93 1.74 1.56 1.45 1.39 1.40 1.43 1.50 1.56
0.64 0.60 0.51 0.40 0.38 0.41 0.43 0.37 0.35 0.34 0.36 0.39 0.40 0.42 0.48 0.62 0.66 0.52 0.49 0.52 0.60 0.65 0.71 0.77 0.70 0.60 0.68 0.73 0.82 0.89 0.91 0.99 1.25 1.58 1.71 1.67 1.74 1.61 1.55 1.48 1.44 1.47 1.47
0.40 0.40 0.34 0.31 0.32 0.34 0.36 0.34 0.40 0.44 0.42 0.43 0.46 0.47 0.48 0.53 0.51 0.41 0.43 0.46 0.52 0.58 0.66 0.75 0.80 0.72 0.71 0.82 0.83 0.86 0.82 0.77 0.97 0.99 1.17 1.46 1.62 1.69 1.65 1.72 1.87 1.81 1.64
0.12 0.13 0.12 0.12 0.13 0.15 0.16 0.22 0.33 0.40 0.42 0.45 0.49 0.50 0.47 0.45 0.45 0.37 0.39 0.47 0.52 0.57 0.59 0.64 0.71 0.69 0.83 0.91 0.90 1.01 1.00 0.89 1.01 1.07 1.11 1.14 1.26 1.40 1.52 1.59 1.67 1.72 1.69
0.01 0.01 0.01 0.02 0.02 0.04 0.06 0.09 0.16 0.20 0.25 0.33 0.35 0.39 0.43 0.43 0.52 0.41 0.41 0.47 0.56 0.65 0.67 0.65 0.78 0.78 0.83 0.82 0.80 1.01 1.03 0.93 0.85 0.91 0.92 0.91 0.86 0.94 1.14 1.31 1.50 1.58 1.54
0.00 0.00 0.00 0.00 0.00 0.01 0.02 0.04 0.07 0.09 0.13 0.17 0.22 0.28 0.36 0.43 0.52 0.50 0.54 0.57 0.64 0.76 0.75 0.67 0.61 0.70 0.59 0.65 0.69 0.74 0.95 0.95 0.85 0.90 0.92 0.86 0.81 0.81 0.87 1.00 1.22 1.41 1.44
0.00 0.00 0.00 0.00 0.00 0.01 0.01 0.02 0.02 0.04 0.07 0.10 0.12 0.17 0.24 0.30 0.38 0.45 0.46 0.52 0.60 0.70 0.75 0.63 0.60 0.66 0.51 0.49 0.52 0.62 0.75 0.86 0.85 0.89 0.90 0.88 0.80 0.72 0.74 0.82 0.91 0.98 1.03
0.00 0.00 0.01 0.01 0.01 0.01 0.02 0.02 0.02 0.04 0.06 0.08 0.11 0.18 0.24 0.31 0.35 0.32 0.31 0.34 0.42 0.53 0.56 0.58 0.57 0.53 0.48 0.45 0.45 0.52 0.59 0.69 0.84 0.86 0.80 0.78 0.71 0.66 0.65 0.68 0.76 0.83 0.87
0.00 0.00 0.00 0.01 0.01 0.01 0.02 0.03 0.04 0.05 0.07 0.10 0.16 0.22 0.27 0.31 0.34 0.33 0.35 0.38 0.39 0.42 0.42 0.42 0.44 0.46 0.50 0.48 0.44 0.48 0.56 0.66 0.72 0.71 0.66 0.63 0.66 0.67 0.70 0.70 0.73 0.79 0.84
0.00 0.00 0.00 0.01 0.01 0.01 0.01 0.01 0.03 0.04 0.06 0.12 0.20 0.25 0.26 0.26 0.22 0.23 0.35 0.46 0.53 0.58 0.64 0.58 0.58 0.58 0.54 0.49 0.45 0.46 0.50 0.54 0.55 0.54 0.53 0.50 0.50 0.55 0.60 0.64 0.68 0.68 0.71
0.00 0.00 0.00 0.01 0.01 0.02 0.02 0.01 0.01 0.03 0.06 0.08 0.09 0.12 0.14 0.14 0.14 0.17 0.25 0.36 0.45 0.57 0.73 0.76 0.79 0.80 0.74 0.63 0.53 0.45 0.41 0.42 0.44 0.46 0.49 0.49 0.47 0.48 0.55 0.57 0.60 0.61 0.60
0.00 0.00 0.00 0.01 0.01 0.01 0.02 0.04 0.06 0.05 0.03 0.03 0.03 0.05 0.12 0.20 0.24 0.29 0.31 0.35 0.38 0.53 0.72 0.79 0.79 0.76 0.69 0.64 0.59 0.49 0.42 0.38 0.40 0.40 0.40 0.43 0.44 0.46 0.51 0.53 0.51 0.53 0.54
0.00 0.00 0.01 0.03 0.05 0.06 0.07 0.10 0.15 0.19 0.17 0.09 0.04 0.04 0.07 0.16 0.20 0.24 0.32 0.44 0.46 0.53 0.63 0.65 0.64 0.52 0.44 0.42 0.39 0.35 0.31 0.29 0.31 0.31 0.29 0.32 0.36 0.38 0.41 0.47 0.49 0.49 0.50
0.00 0.01 0.03 0.08 0.10 0.09 0.10 0.14 0.16 0.13 0.11 0.10 0.09 0.07 0.07 0.10 0.13 0.15 0.25 0.43 0.44 0.38 0.34 0.32 0.31 0.28 0.24 0.25 0.25 0.24 0.23 0.22 0.21 0.21 0.20 0.21 0.26 0.31 0.34 0.38 0.44 0.47 0.47
0.01 0.01 0.03 0.08 0.11 0.09 0.09 0.10 0.10 0.08 0.07 0.08 0.10 0.11 0.13 0.15 0.17 0.18 0.21 0.25 0.23 0.19 0.18 0.19 0.19 0.20 0.20 0.21 0.22 0.22 0.21 0.20 0.20 0.20 0.20 0.20 0.23 0.27 0.31 0.37 0.42 0.45 0.44
0.01 0.02 0.03 0.05 0.08 0.07 0.07 0.07 0.07 0.08 0.08 0.10 0.10 0.11 0.15 0.21 0.21 0.21 0.22 0.22 0.20 0.19 0.19 0.21 0.19 0.19 0.21 0.23 0.25 0.26 0.25 0.24 0.23 0.22 0.22 0.23 0.24 0.27 0.31 0.39 0.45 0.47 0.48
0.02 0.04 0.05 0.07 0.07 0.06 0.07 0.09 0.12 0.11 0.10 0.12 0.12 0.13 0.17 0.21 0.23 0.21 0.21 0.22 0.21 0.21 0.23 0.27 0.27 0.24 0.24 0.27 0.30 0.30 0.30 0.30 0.28 0.25 0.24 0.23 0.24 0.26 0.29 0.36 0.43 0.48 0.52
0.03 0.04 0.06 0.08 0.08 0.07 0.08 0.11 0.13 0.13 0.12 0.13 0.15 0.16 0.19 0.22 0.24 0.25 0.25 0.24 0.24 0.25 0.25 0.27 0.30 0.29 0.26 0.28 0.32 0.35 0.35 0.33 0.32 0.31 0.29 0.28 0.28 0.28 0.30 0.32 0.36 0.42 0.47
0.05 0.06 0.07 0.09 0.10 0.09 0.11 0.12 0.13 0.13 0.14 0.16 0.17 0.18 0.20 0.22 0.22 0.22 0.24 0.25 0.27 0.28 0.27 0.27 0.28 0.26 0.26 0.28 0.31 0.34 0.37 0.36 0.33 0.31 0.31 0.31 0.33 0.34 0.36 0.39 0.43 0.46 0.51
0.07 0.07 0.08 0.09 0.10 0.10 0.10 0.12 0.14 0.14 0.15 0.17 0.17 0.17 0.19 0.21 0.21 0.21 0.22 0.23 0.25 0.27 0.27 0.29 0.30 0.28 0.27 0.27 0.30 0.33 0.41 0.42 0.38 0.36 0.32 0.31 0.33 0.36 0.41 0.49 0.55 0.59 0.62
0.07 0.08 0.09 0.10 0.11 0.11 0.11 0.13 0.14 0.15 0.17 0.17 0.17 0.18 0.21 0.23 0.22 0.22 0.22 0.23 0.24 0.25 0.24 0.26 0.28 0.27 0.27 0.28 0.31 0.37 0.42 0.39 0.37 0.37 0.34 0.32 0.34 0.35 0.36 0.40 0.44 0.49 0.54

GEFSGL_prec_meanprecacc_150.txt.gz
Total_Precipitation_Accumulation
0.78 0.78 0.79 0.77 0.76 0.74 0.74 0.72 0.73 0.79 0.80 0.83 1.00 1.06 1.14 1.22 1.39 1.65 1.83 1.84 1.76 1.77 1.76 1.84 2.00 2.09 2.31 2.28 2.19 2.08 1.94 1.75 1.61 1.46 1.25 1.06 1.12 1.17 1.21 1.21 1.12 1.06 0.91
0.88 0.87 0.79 0.70 0.67 0.67 0.64 0.57 0.58 0.56 0.55 0.68 0.81 0.86 0.90 0.96 1.14 1.44 1.63 1.67 1.64 1.56 1.55 1.66 1.87 2.03 2.25 2.36 2.32 2.18 2.07 1.91 1.80 1.73 1.55 1.30 1.19 1.23 1.32 1.38 1.32 1.22 1.15
0.92 0.82 0.74 0.68 0.60 0.55 0.49 0.45 0.51 0.53 0.58 0.68 0.78 0.84 0.86 0.92 0.96 1.07 1.23 1.35 1.35 1.29 1.33 1.38 1.43 1.60 1.88 2.08 2.13 2.16 2.18 2.14 2.08 1.93 1.73 1.56 1.40 1.30 1.37 1.39 1.34 1.39 1.28
1.06 0.96 0.85 0.74 0.62 0.57 0.50 0.45 0.44 0.46 0.53 0.60 0.65 0.73 0.81 0.88 0.89 0.91 0.94 1.01 1.03 1.09 1.15 1.20 1.22 1.25 1.45 1.63 1.75 1.97 2.19 2.20 2.17 2.09 1.89 1.67 1.53 1.42 1.46 1.49 1.51 1.48 1.40
1.08 1.07 0.93 0.74 0.61 0.55 0.50 0.43 0.41 0.41 0.43 0.49 0.56 0.60 0.67 0.76 0.85 0.88 0.76 0.73 0.80 0.91 0.95 0.93 0.94 1.02 1.13 1.22 1.29 1.64 1.99 2.15 2.13 2.07 1.94 1.79 1.57 1.47 1.34 1.32 1.48 1.68 1.66
0.99 0.97 0.75 0.58 0.47 0.42 0.41 0.40 0.35 0.35 0.40 0.45 0.46 0.49 0.61 0.66 0.79 0.77 0.61 0.59 0.63 0.74 0.83 0.82 0.73 0.73 0.78 0.84 0.92 1.10 1.37 1.61 1.88 2.03 1.95 1.76 1.58 1.47 1.41 1.42 1.46 1.56 1.63
0.64 0.60 0.51 0.40 0.38 0.41 0.43 0.37 0.35 0.34 0.36 0.39 0.40 0.42 0.48 0.62 0.66 0.52 0.49 0.52 0.60 0.65 0.71 0.77 0.70 0.61 0.68 0.73 0.83 0.90 0.92 0.99 1.27 1.60 1.72 1.69 1.76 1.62 1.57 1.50 1.47 1.51 1.53
0.40 0.40 0.34 0.31 0.32 0.34 0.36 0.34 0.40 0.44 0.42 0.43 0.46 0.47 0.48 0.53 0.51 0.41 0.43 0.47 0.53 0.58 0.66 0.75 0.80 0.72 0.72 0.83 0.84 0.86 0.83 0.78 0.98 1.00 1.17 1.46 1.64 1.72 1.68 1.75 1.90 1.85 1.69
0.12 0.13 0.12 0.12 0.13 0.15 0.16 0.22 0.33 0.40 0.42 0.45 0.49 0.50 0.47 0.45 0.45 0.37 0.39 0.47 0.52 0.57 0.59 0.65 0.72 0.70 0.83 0.91 0.91 1.03 1.01 0.90 1.02 1.08 1.11 1.15 1.27 1.42 1.55 1.62 1.70 1.76 1.73
0.01 0.01 0.01 0.02 0.02 0.04 0.06 0.09 0.16 0.20 0.25 0.33 0.35 0.39 0.43 0.43 0.52 0.41 0.41 0.47 0.56 0.66 0.67 0.65 0.78 0.78 0.84 0.83 0.81 1.03 1.05 0.94 0.86 0.91 0.93 0.91 0.87 0.96 1.17 1.33 1.53 1.61 1.59
0.01 0.00 0.00 0.00 0.00 0.01 0.02 0.04 0.07 0.09 0.13 0.17 0.22 0.28 0.36 0.43 0.52 0.50 0.55 0.57 0.64 0.77 0.75 0.67 0.61 0.71 0.60 0.66 0.70 0.75 0.96 0.96 0.86 0.91 0.93 0.86 0.82 0.82 0.89 1.03 1.27 1.46 1.50
0.01 0.00 0.00 0.00 0.00 0.01 0.01 0.02 0.02 0.04 0.07 0.10 0.12 0.17 0.24 0.30 0.38 0.45 0.46 0.52 0.60 0.70 0.75 0.64 0.61 0.67 0.52 0.50 0.52 0.63 0.76 0.88 0.86 0.90 0.91 0.89 0.80 0.74 0.76 0.85 0.95 1.03 1.09
0.00 0.00 0.01 0.01 0.01 0.01 0.02 0.02 0.02 0.04 0.06 0.08 0.11 0.18 0.24 0.31 0.35 0.32 0.31 0.34 0.42 0.54 0.57 0.59 0.58 0.54 0.50 0.46 0.46 0.53 0.60 0.70 0.86 0.87 0.81 0.79 0.73 0.68 0.69 0.72 0.81 0.87 0.92
0.00 0.00 0.00 0.01 0.01 0.01 0.02 0.03 0.04 0.05 0.07 0.10 0.16 0.22 0.27 0.31 0.34 0.33 0.35 0.38 0.39 0.43 0.43 0.43 0.45 0.48 0.51 0.49 0.46 0.49 0.57 0.67 0.73 0.72 0.67 0.64 0.67 0.69 0.73 0.75 0.79 0.83 0.88
0.00 0.00 0.00 0.01 0.01 0.01 0.01 0.01 0.03 0.04 0.06 0.12 0.20 0.25 0.26 0.26 0.22 0.23 0.35 0.46 0.53 0.59 0.65 0.59 0.60 0.60 0.57 0.51 0.47 0.47 0.52 0.56 0.56 0.55 0.55 0.51 0.51 0.57 0.63 0.68 0.74 0.74 0.76
0.00 0.00 0.00 0.01 0.01 0.02 0.02 0.01 0.01 0.03 0.06 0.08 0.09 0.12 0.14 0.14 0.14 0.18 0.25 0.36 0.45 0.58 0.74 0.77 0.81 0.83 0.76 0.65 0.55 0.47 0.42 0.43 0.45 0.48 0.50 0.51 0.48 0.50 0.57 0.60 0.65 0.67 0.66
0.00 0.00 0.00 0.01 0.01 0.01 0.02 0.04 0.06 0.05 0.03 0.03 0.03 0.05 0.12 0.20 0.24 0.29 0.31 0.35 0.39 0.54 0.74 0.80 0.80 0.79 0.72 0.65 0.60 0.51 0.43 0.39 0.41 0.41 0.41 0.44 0.45 0.47 0.53 0.56 0.56 0.58 0.61
0.00 0.00 0.01 0.03 0.05 0.06 0.07 0.10 0.15 0.19 0.17 0.09 0.04 0.04 0.07 0.16 0.20 0.24 0.32 0.44 0.46 0.54 0.65 0.67 0.65 0.54 0.46 0.43 0.40 0.36 0.32 0.31 0.32 0.32 0.31 0.33 0.38 0.40 0.43 0.49 0.54 0.54 0.56
0.00 0.01 0.03 0.08 0.10 0.09 0.10 0.14 0.16 0.13 0.11 0.10 0.09 0.07 0.07 0.10 0.13 0.15 0.25 0.44 0.45 0.39 0.36 0.34 0.32 0.30 0.27 0.26 0.26 0.25 0.24 0.23 0.22 0.22 0.22 0.23 0.28 0.33 0.37 0.41 0.48 0.52 0.53
0.01 0.01 0.03 0.08 0.11 0.09 0.09 0.10 0.10 0.08 0.07 0.08 0.10 0.11 0.13 0.15 0.17 0.18 0.21 0.26 0.24 0.20 0.19 0.20 0.21 0.21 0.22 0.23 0.23 0.23 0.22 0.21 0.21 0.21 0.21 0.23 0.26 0.30 0.34 0.40 0.46 0.50 0.51
0.01 0.02 0.03 0.05 0.08 0.07 0.07 0.07 0.07 0.08 0.08 0.10 0.10 0.11 0.15 0.21 0.22 0.21 0.23 0.23 0.21 0.20 0.21 0.22 0.21 0.20 0.22 0.24 0.26 0.27 0.26 0.25 0.23 0.23 0.25 0.27 0.28 0.31 0.34 0.42 0.49 0.52 0.54
0.02 0.04 0.05 0.07 0.08 0.06 0.07 0.09 0.12 0.11 0.10 0.12 0.13 0.13 0.17 0.21 0.23 0.22 0.22 0.23 0.22 0.22 0.25 0.28 0.28 0.26 0.25 0.28 0.32 0.32 0.32 0.31 0.29 0.27 0.27 0.29 0.30 0.30 0.33 0.40 0.47 0.53 0.57
0.03 0.04 0.06 0.08 0.09 0.07 0.08 0.11 0.13 0.13 0.12 0.13 0.15 0.16 0.19 0.22 0.24 0.25 0.26 0.25 0.25 0.26 0.27 0.28 0.31 0.30 0.28 0.29 0.34 0.38 0.37 0.35 0.34 0.34 0.34 0.35 0.34 0.33 0.33 0.36 0.40 0.47 0.53
0.05 0.06 0.07 0.09 0.10 0.09 0.11 0.13 0.14 0.13 0.14 0.16 0.17 0.18 0.20 0.22 0.23 0.22 0.24 0.26 0.28 0.29 0.29 0.29 0.29 0.28 0.27 0.29 0.32 0.36 0.39 0.38 0.35 0.34 0.35 0.38 0.39 0.39 0.40 0.43 0.47 0.50 0.55
0.07 0.07 0.08 0.09 0.10 0.10 0.10 0.12 0.14 0.14 0.15 0.17 0.17 0.18 0.20 0.22 0.22 0.22 0.23 0.24 0.26 0.28 0.28 0.30 0.31 0.29 0.27 0.28 0.31 0.35 0.42 0.43 0.40 0.38 0.36 0.37 0.39 0.41 0.46 0.54 0.60 0.63 0.66
0.07 0.08 0.09 0.10 0.11 0.11 0.11 0.13 0.14 0.16 0.17 0.18 0.18 0.19 0.21 0.23 0.23 0.22 0.23 0.23 0.25 0.26 0.25 0.28 0.29 0.28 0.27 0.29 0.32 0.39 0.44 0.41 0.38 0.39 0.37 0.38 0.40 0.41 0.42 0.46 0.49 0.54 0.59

GEFSGL_prec_meanprecacc_156.txt.gz
Total_Precipitation_Accumulation
0.79 0.78 0.79 0.77 0.76 0.74 0.74 0.72 0.73 0.79 0.80 0.83 1.00 1.06 1.14 1.22 1.39 1.65 1.83 1.84 1.76 1.77 1.77 1.85 2.01 2.10 2.32 2.30 2.20 2.09 1.95 1.77 1.64 1.49 1.28 1.09 1.15 1.19 1.23 1.23 1.15 1.08 0.96
0.88 0.87 0.79 0.70 0.67 0.67 0.64 0.57 0.58 0.56 0.55 0.68 0.81 0.86 0.90 0.96 1.14 1.44 1.63 1.67 1.64 1.56 1.55 1.67 1.89 2.04 2.26 2.37 2.33 2.19 2.08 1.92 1.82 1.76 1.57 1.34 1.22 1.25 1.34 1.40 1.34 1.24 1.18
0.92 0.82 0.74 0.68 0.60 0.55 0.49 0.45 0.51 0.53 0.58 0.68 0.78 0.84 0.86 0.92 0.96 1.07 1.23 1.36 1.35 1.29 1.33 1.40 1.45 1.61 1.90 2.10 2.15 2.17 2.19 2.15 2.10 1.95 1.76 1.60 1.43 1.32 1.39 1.41 1.36 1.40 1.29
1.06 0.96 0.85 0.74 0.62 0.57 0.50 0.45 0.44 0.46 0.53 0.60 0.65 0.73 0.81 0.88 0.89 0.91 0.94 1.01 1.03 1.09 1.15 1.21 1.24 1.27 1.46 1.65 1.76 1.98 2.21 2.21 2.19 2.12 1.92 1.73 1.57 1.44 1.49 1.51 1.53 1.50 1.43
1.08 1.07 0.93 0.74 0.61 0.55 0.50 0.43 0.41 0.41 0.43 0.49 0.56 0.60 0.67 0.76 0.85 0.88 0.76 0.73 0.80 0.91 0.95 0.93 0.96 1.03 1.15 1.23 1.30 1.66 2.01 2.18 2.15 2.11 1.98 1.85 1.62 1.49 1.37 1.36 1.51 1.71 1.71
0.99 0.97 0.75 0.58 0.47 0.42 0.41 0.40 0.35 0.35 0.40 0.45 0.46 0.49 0.61 0.66 0.79 0.77 0.61 0.59 0.63 0.74 0.83 0.83 0.74 0.74 0.79 0.85 0.93 1.11 1.39 1.63 1.90 2.06 1.97 1.79 1.60 1.49 1.44 1.45 1.48 1.59 1.67
0.64 0.60 0.51 0.40 0.38 0.41 0.43 0.37 0.35 0.34 0.36 0.39 0.40 0.42 0.48 0.62 0.66 0.52 0.49 0.52 0.60 0.65 0.71 0.77 0.70 0.61 0.69 0.74 0.84 0.91 0.93 1.01 1.28 1.62 1.74 1.71 1.77 1.64 1.60 1.53 1.49 1.55 1.58
0.40 0.40 0.34 0.31 0.32 0.34 0.36 0.34 0.40 0.44 0.42 0.43 0.46 0.47 0.48 0.53 0.51 0.41 0.43 0.47 0.53 0.58 0.66 0.75 0.80 0.72 0.72 0.83 0.84 0.88 0.84 0.80 1.00 1.02 1.19 1.48 1.66 1.74 1.71 1.78 1.94 1.90 1.75
0.12 0.13 0.12 0.12 0.13 0.15 0.16 0.22 0.33 0.40 0.42 0.45 0.49 0.50 0.47 0.45 0.45 0.37 0.39 0.47 0.52 0.57 0.59 0.65 0.72 0.70 0.83 0.91 0.92 1.05 1.03 0.91 1.03 1.09 1.13 1.18 1.30 1.46 1.58 1.65 1.73 1.80 1.77
0.01 0.01 0.01 0.02 0.02 0.04 0.06 0.09 0.16 0.20 0.25 0.33 0.35 0.39 0.43 0.43 0.52 0.41 0.41 0.47 0.56 0.66 0.67 0.65 0.78 0.78 0.84 0.83 0.82 1.06 1.07 0.95 0.87 0.93 0.94 0.92 0.88 0.99 1.20 1.37 1.57 1.65 1.62
0.01 0.00 0.00 0.00 0.00 0.01 0.02 0.04 0.07 0.09 0.13 0.17 0.22 0.28 0.36 0.43 0.52 0.50 0.55 0.57 0.64 0.77 0.75 0.67 0.61 0.71 0.60 0.66 0.71 0.77 0.98 0.97 0.87 0.93 0.95 0.89 0.83 0.84 0.91 1.05 1.31 1.50 1.53
0.01 0.00 0.00 0.00 0.00 0.01 0.01 0.02 0.02 0.04 0.07 0.10 0.12 0.17 0.24 0.30 0.38 0.45 0.46 0.52 0.60 0.70 0.75 0.64 0.61 0.67 0.52 0.50 0.53 0.64 0.78 0.89 0.88 0.92 0.93 0.91 0.83 0.76 0.79 0.88 0.98 1.07 1.13
0.00 0.00 0.01 0.01 0.01 0.01 0.02 0.02 0.02 0.04 0.06 0.08 0.11 0.18 0.24 0.31 0.35 0.32 0.31 0.34 0.42 0.54 0.57 0.59 0.58 0.54 0.50 0.46 0.46 0.53 0.61 0.72 0.88 0.90 0.83 0.81 0.75 0.71 0.72 0.75 0.83 0.90 0.96
0.00 0.00 0.00 0.01 0.01 0.01 0.02 0.03 0.04 0.05 0.07 0.10 0.16 0.22 0.27 0.31 0.34 0.33 0.35 0.38 0.39 0.43 0.43 0.43 0.45 0.48 0.51 0.49 0.46 0.50 0.58 0.69 0.76 0.75 0.70 0.67 0.70 0.72 0.75 0.77 0.82 0.86 0.92
0.00 0.00 0.00 0.01 0.01 0.01 0.01 0.01 0.03 0.04 0.06 0.12 0.20 0.25 0.26 0.26 0.22 0.23 0.35 0.46 0.53 0.59 0.65 0.59 0.60 0.61 0.57 0.52 0.48 0.48 0.54 0.59 0.60 0.59 0.58 0.55 0.54 0.59 0.65 0.70 0.77 0.77 0.79
0.00 0.00 0.00 0.01 0.01 0.02 0.02 0.01 0.01 0.03 0.06 0.08 0.09 0.12 0.14 0.14 0.14 0.18 0.25 0.36 0.45 0.58 0.74 0.77 0.81 0.83 0.77 0.67 0.57 0.49 0.45 0.47 0.50 0.53 0.55 0.55 0.52 0.52 0.59 0.61 0.67 0.70 0.70
0.00 0.00 0.00 0.01 0.01 0.02 0.02 0.04 0.06 0.05 0.03 0.03 0.03 0.05 0.12 0.20 0.24 0.29 0.31 0.35 0.39 0.54 0.74 0.80 0.81 0.80 0.73 0.67 0.62 0.53 0.46 0.42 0.45 0.46 0.45 0.48 0.49 0.50 0.56 0.58 0.58 0.61 0.64
0.00 0.00 0.01 0.03 0.06 0.07 0.07 0.10 0.15 0.19 0.17 0.09 0.04 0.04 0.07 0.16 0.20 0.24 0.32 0.44 0.46 0.55 0.65 0.67 0.66 0.54 0.47 0.45 0.42 0.39 0.35 0.34 0.36 0.37 0.35 0.37 0.41 0.43 0.47 0.52 0.56 0.57 0.59
0.00 0.01 0.03 0.09 0.10 0.09 0.10 0.15 0.16 0.13 0.11 0.10 0.09 0.07 0.07 0.10 0.13 0.15 0.26 0.44 0.45 0.39 0.36 0.35 0.33 0.30 0.28 0.28 0.28 0.27 0.27 0.26 0.26 0.26 0.25 0.27 0.31 0.36 0.41 0.46 0.52 0.55 0.56
0.01 0.01 0.03 0.08 0.11 0.10 0.09 0.10 0.10 0.08 0.07 0.08 0.10 0.11 0.13 0.15 0.17 0.18 0.21 0.26 0.25 0.21 0.20 0.21 0.22 0.22 0.23 0.24 0.24 0.25 0.24 0.24 0.24 0.25 0.24 0.26 0.29 0.34 0.38 0.45 0.50 0.54 0.54
0.01 0.02 0.03 0.05 0.08 0.07 0.07 0.07 0.08 0.08 0.09 0.10 0.10 0.11 0.15 0.21 0.22 0.21 0.23 0.23 0.22 0.21 0.21 0.23 0.22 0.21 0.23 0.26 0.28 0.29 0.29 0.28 0.27 0.27 0.28 0.30 0.32 0.34 0.38 0.46 0.54 0.56 0.58
0.02 0.04 0.05 0.07 0.08 0.06 0.07 0.09 0.12 0.12 0.10 0.12 0.13 0.13 0.17 0.22 0.23 0.22 0.22 0.23 0.22 0.23 0.25 0.29 0.29 0.27 0.27 0.30 0.34 0.34 0.35 0.35 0.33 0.31 0.31 0.32 0.33 0.33 0.36 0.44 0.52 0.58 0.62
0.03 0.04 0.06 0.08 0.09 0.07 0.09 0.11 0.13 0.13 0.13 0.14 0.15 0.17 0.19 0.23 0.24 0.25 0.26 0.25 0.26 0.27 0.27 0.29 0.32 0.31 0.29 0.30 0.35 0.40 0.40 0.39 0.38 0.36 0.37 0.38 0.38 0.37 0.37 0.40 0.44 0.51 0.57
0.05 0.06 0.07 0.09 0.10 0.09 0.11 0.13 0.14 0.14 0.15 0.16 0.18 0.19 0.21 0.23 0.23 0.23 0.25 0.27 0.28 0.30 0.30 0.30 0.30 0.29 0.28 0.30 0.33 0.38 0.41 0.40 0.37 0.36 0.38 0.41 0.43 0.43 0.44 0.47 0.51 0.54 0.60
0.07 0.07 0.08 0.09 0.10 0.10 0.10 0.12 0.14 0.15 0.16 0.18 0.18 0.18 0.20 0.22 0.22 0.22 0.23 0.25 0.27 0.29 0.29 0.31 0.32 0.30 0.29 0.29 0.32 0.36 0.44 0.46 0.42 0.40 0.39 0.41 0.43 0.45 0.49 0.57 0.64 0.67 0.71
0.07 0.08 0.09 0.10 0.11 0.11 0.12 0.13 0.15 0.16 0.18 0.18 0.19 0.20 0.22 0.24 0.24 0.23 0.24 0.24 0.26 0.27 0.26 0.29 0.30 0.29 0.29 0.31 0.33 0.40 0.45 0.42 0.40 0.41 0.40 0.41 0.44 0.44 0.45 0.49 0.53 0.59 0.65